Time,TemperatureF,DewpointF,PressureIn,WindDirection,WindDirectionDegrees,WindSpeedMPH,WindSpeedGustMPH,Humidity,HourlyPrecipIn,Conditions,Clouds,dailyrainin,SoftwareType,DateUTC
2013-09-08 00:00:00,61.5,58.8,30.03,WNW,298,0.0,1.2,91,0.00,CLR,BKN,0.00,WeatherDisplay:10.37,2013-09-08 07:00:00,
2013-09-08 00:01:00,61.5,58.8,30.03,NNW,337,0.6,1.0,91,0.00,CLR,BKN,0.00,WeatherDisplay:10.37,2013-09-08 07:01:00,
2013-09-08 00:04:00,61.5,58.8,30.03,SSW,211,0.0,1.0,91,0.00,CLR,BKN,0.00,WeatherDisplay:10.37,2013-09-08 07:04:00,
2013-09-08 00:05:00,61.5,58.8,30.03,West,268,0.0,3.0,91,0.00,CLR,BKN,0.00,WeatherDisplay:10.37,2013-09-08 07:05:00,
2013-09-08 00:06:00,61.5,58.8,30.03,SSW,211,0.0,0.0,91,0.00,CLR,BKN,0.00,WeatherDisplay:10.37,2013-09-08 07:06:00,
2013-09-08 00:07:00,61.4,58.7,30.03,SSW,211,0.0,0.0,91,0.00,CLR,BKN,0.00,WeatherDisplay:10.37,2013-09-08 07:07:00,
2013-09-08 00:09:00,61.4,58.7,30.03,SSW,211,0.1,0.0,91,0.00,CLR,BKN,0.00,WeatherDisplay:10.37,2013-09-08 07:09:00,
2013-09-08 00:10:00,61.4,58.7,30.03,West,270,0.0,3.5,91,0.00,CLR,BKN,0.00,WeatherDisplay:10.37,2013-09-08 07:10:00,
2013-09-08 00:11:00,61.4,58.7,30.03,West,270,0.0,3.5,91,0.00,CLR,BKN,0.00,WeatherDisplay:10.37,2013-09-08 07:11:00,
2013-09-08 00:13:00,61.3,58.7,30.03,NNW,344,0.4,2.3,91,0.00,CLR,BKN,0.00,WeatherDisplay:10.37,2013-09-08 07:13:00,
2013-09-08 00:14:00,61.3,58.7,30.03,NNW,344,0.0,0.0,91,0.00,CLR,BKN,0.00,WeatherDisplay:10.37,2013-09-08 07:14:00,
2013-09-08 00:16:00,61.3,58.7,30.03,South,191,0.8,1.2,91,0.00,CLR,BKN,0.00,WeatherDisplay:10.37,2013-09-08 07:16:00,
2013-09-08 00:17:00,61.2,58.6,30.03,South,191,0.2,2.3,91,0.00,CLR,BKN,0.00,WeatherDisplay:10.37,2013-09-08 07:17:00,
2013-09-08 00:18:00,61.2,58.6,30.03,South,191,0.0,0.0,91,0.00,CLR,BKN,0.00,WeatherDisplay:10.37,2013-09-08 07:18:00,
2013-09-08 00:19:00,61.2,58.6,30.03,South,191,0.5,0.0,91,0.00,CLR,BKN,0.00,WeatherDisplay:10.37,2013-09-08 07:19:00,
2013-09-08 00:21:00,61.1,58.5,30.03,North,360,0.6,4.6,91,0.00,CLR,BKN,0.00,WeatherDisplay:10.37,2013-09-08 07:21:00,
2013-09-08 00:22:00,61.1,58.5,30.03,North,355,0.0,3.5,91,0.00,CLR,BKN,0.00,WeatherDisplay:10.37,2013-09-08 07:22:00,
2013-09-08 00:23:00,61.1,58.5,30.03,ENE,70,0.3,0.0,91,0.00,CLR,BKN,0.00,WeatherDisplay:10.37,2013-09-08 07:23:00,
2013-09-08 00:24:00,61.1,58.5,30.03,ENE,70,0.0,1.2,91,0.00,CLR,BKN,0.00,WeatherDisplay:10.37,2013-09-08 07:24:00,
2013-09-08 00:27:00,61.1,58.5,30.03,SSE,163,0.0,3.5,91,0.00,CLR,BKN,0.00,WeatherDisplay:10.37,2013-09-08 07:27:00,
2013-09-08 00:28:00,61.0,58.4,30.03,SSE,163,0.0,0.0,91,0.00,CLR,BKN,0.00,WeatherDisplay:10.37,2013-09-08 07:28:00,
2013-09-08 00:29:00,61.0,58.7,30.04,SSE,166,0.0,1.2,92,0.00,CLR,BKN,0.00,WeatherDisplay:10.37,2013-09-08 07:29:00,
2013-09-08 00:32:00,60.9,58.6,30.04,SSE,166,0.0,0.0,92,0.00,CLR,BKN,0.00,WeatherDisplay:10.37,2013-09-08 07:32:00,
2013-09-08 00:34:00,60.9,58.6,30.04,ENE,57,1.4,3.5,92,0.00,CLR,BKN,0.00,WeatherDisplay:10.37,2013-09-08 07:34:00,
2013-09-08 00:35:00,60.9,58.6,30.04,East,88,0.7,3.5,92,0.00,CLR,BKN,0.00,WeatherDisplay:10.37,2013-09-08 07:35:00,
2013-09-08 00:36:00,60.9,58.6,30.03,WNW,285,0.0,1.2,92,0.00,CLR,BKN,0.00,WeatherDisplay:10.37,2013-09-08 07:36:00,
2013-09-08 00:37:00,60.9,58.6,30.03,WNW,285,0.1,0.0,92,0.00,CLR,BKN,0.00,WeatherDisplay:10.37,2013-09-08 07:37:00,
2013-09-08 00:40:00,60.9,58.6,30.04,WSW,257,0.0,0.0,92,0.00,CLR,BKN,0.00,WeatherDisplay:10.37,2013-09-08 07:40:00,
2013-09-08 00:41:00,60.8,58.5,30.03,WSW,257,0.0,0.0,92,0.00,CLR,BKN,0.00,WeatherDisplay:10.37,2013-09-08 07:41:00,
2013-09-08 00:42:00,60.8,58.5,30.03,ESE,120,0.9,1.2,92,0.00,CLR,BKN,0.00,WeatherDisplay:10.37,2013-09-08 07:42:00,
2013-09-08 00:43:00,60.8,58.5,30.03,ESE,120,0.1,3.5,92,0.00,CLR,BKN,0.00,WeatherDisplay:10.37,2013-09-08 07:43:00,
2013-09-08 00:46:00,60.6,58.3,30.03,SSW,204,0.2,3.5,92,0.00,CLR,BKN,0.00,WeatherDisplay:10.37,2013-09-08 07:46:00,
2013-09-08 00:47:00,60.6,58.3,30.04,SW,217,0.0,1.2,92,0.00,CLR,BKN,0.00,WeatherDisplay:10.37,2013-09-08 07:47:00,
2013-09-08 00:48:00,60.5,58.2,30.04,SW,217,0.0,0.0,92,0.00,CLR,BKN,0.00,WeatherDisplay:10.37,2013-09-08 07:48:00,
2013-09-08 00:51:00,60.5,58.2,30.04,SW,217,0.6,3.5,92,0.00,CLR,BKN,0.00,WeatherDisplay:10.37,2013-09-08 07:51:00,
2013-09-08 00:52:00,60.5,58.2,30.04,West,281,0.1,1.2,92,0.00,CLR,BKN,0.00,WeatherDisplay:10.37,2013-09-08 07:52:00,
2013-09-08 00:53:00,60.5,58.2,30.04,West,281,0.0,1.2,92,0.00,CLR,BKN,0.00,WeatherDisplay:10.37,2013-09-08 07:53:00,
2013-09-08 00:54:00,60.5,58.5,30.04,West,281,0.3,1.2,93,0.00,CLR,BKN,0.00,WeatherDisplay:10.37,2013-09-08 07:54:00,
2013-09-08 00:56:00,60.5,58.2,30.04,WNW,284,0.0,3.5,92,0.00,CLR,BKN,0.00,WeatherDisplay:10.37,2013-09-08 07:56:00,
2013-09-08 00:58:00,60.4,58.4,30.04,WNW,282,0.0,0.0,93,0.00,CLR,BKN,0.00,WeatherDisplay:10.37,2013-09-08 07:58:00,
2013-09-08 00:59:00,60.4,58.4,30.04,South,173,1.1,3.5,93,0.00,CLR,BKN,0.00,WeatherDisplay:10.37,2013-09-08 07:59:00,
2013-09-08 01:01:00,60.4,58.4,30.04,South,173,0.5,3.5,93,0.00,CLR,BKN,0.00,WeatherDisplay:10.37,2013-09-08 08:01:00,
2013-09-08 01:03:00,60.4,58.4,30.04,South,173,0.1,1.2,93,0.00,CLR,BKN,0.00,WeatherDisplay:10.37,2013-09-08 08:03:00,
2013-09-08 01:04:00,60.4,58.4,30.04,South,173,0.1,1.2,93,0.00,CLR,BKN,0.00,WeatherDisplay:10.37,2013-09-08 08:04:00,
2013-09-08 01:05:00,60.3,58.3,30.04,West,281,0.3,2.0,93,0.00,CLR,BKN,0.00,WeatherDisplay:10.37,2013-09-08 08:05:00,
2013-09-08 01:06:00,60.3,58.3,30.04,West,281,0.1,2.3,93,0.00,CLR,BKN,0.00,WeatherDisplay:10.37,2013-09-08 08:06:00,
2013-09-08 01:07:00,60.3,58.3,30.04,West,281,0.1,1.2,93,0.00,CLR,BKN,0.00,WeatherDisplay:10.37,2013-09-08 08:07:00,
2013-09-08 01:08:00,60.3,58.3,30.04,West,281,0.0,0.0,93,0.00,CLR,BKN,0.00,WeatherDisplay:10.37,2013-09-08 08:08:00,
2013-09-08 01:09:00,60.3,58.3,30.04,West,281,0.0,0.0,93,0.00,CLR,BKN,0.00,WeatherDisplay:10.37,2013-09-08 08:09:00,
2013-09-08 01:11:00,60.2,58.2,30.04,SSW,213,0.6,3.5,93,0.00,CLR,BKN,0.00,WeatherDisplay:10.37,2013-09-08 08:11:00,
2013-09-08 01:12:00,60.2,58.2,30.04,SSW,213,0.8,3.5,93,0.00,CLR,BKN,0.00,WeatherDisplay:10.37,2013-09-08 08:12:00,
2013-09-08 01:13:00,60.2,58.2,30.04,WSW,242,1.2,4.6,93,0.00,CLR,BKN,0.00,WeatherDisplay:10.37,2013-09-08 08:13:00,
2013-09-08 01:15:00,60.2,58.2,30.04,WSW,242,0.0,0.0,93,0.00,CLR,BKN,0.00,WeatherDisplay:10.37,2013-09-08 08:15:00,
2013-09-08 01:16:00,60.2,58.2,30.04,WSW,242,0.0,0.0,93,0.00,CLR,BKN,0.00,WeatherDisplay:10.37,2013-09-08 08:16:00,
2013-09-08 01:17:00,60.2,58.2,30.04,WSW,242,0.0,0.0,93,0.00,CLR,BKN,0.00,WeatherDisplay:10.37,2013-09-08 08:17:00,
2013-09-08 01:18:00,60.2,58.2,30.04,WSW,242,0.0,1.2,93,0.00,CLR,BKN,0.00,WeatherDisplay:10.37,2013-09-08 08:18:00,
2013-09-08 01:19:00,60.2,58.2,30.04,WNW,286,0.3,1.2,93,0.00,CLR,BKN,0.00,WeatherDisplay:10.37,2013-09-08 08:19:00,
2013-09-08 01:20:00,60.2,58.2,30.04,WNW,284,0.1,2.3,93,0.00,CLR,BKN,0.00,WeatherDisplay:10.37,2013-09-08 08:20:00,
2013-09-08 01:21:00,60.2,58.2,30.04,WNW,284,0.0,0.0,93,0.00,CLR,BKN,0.00,WeatherDisplay:10.37,2013-09-08 08:21:00,
2013-09-08 01:23:00,60.2,58.2,30.04,NNE,31,0.6,2.3,93,0.00,CLR,BKN,0.00,WeatherDisplay:10.37,2013-09-08 08:23:00,
2013-09-08 01:24:00,60.2,58.2,30.04,NNE,30,0.0,1.2,93,0.00,CLR,BKN,0.00,WeatherDisplay:10.37,2013-09-08 08:24:00,
2013-09-08 01:25:00,60.2,58.2,30.04,NNE,30,0.0,1.2,93,0.00,CLR,BKN,0.00,WeatherDisplay:10.37,2013-09-08 08:25:00,
2013-09-08 01:27:00,60.2,58.2,30.04,NNE,30,0.0,0.0,93,0.00,CLR,BKN,0.00,WeatherDisplay:10.37,2013-09-08 08:27:00,
2013-09-08 01:28:00,60.2,58.2,30.04,NNE,30,0.0,0.0,93,0.00,CLR,BKN,0.00,WeatherDisplay:10.37,2013-09-08 08:28:00,
2013-09-08 01:29:00,60.2,58.2,30.04,NNE,30,0.0,0.0,93,0.00,CLR,BKN,0.00,WeatherDisplay:10.37,2013-09-08 08:29:00,
2013-09-08 01:30:00,60.2,58.2,30.04,NNE,30,0.0,0.0,93,0.00,CLR,BKN,0.00,WeatherDisplay:10.37,2013-09-08 08:30:00,
2013-09-08 01:31:00,60.2,58.2,30.04,WSW,244,0.3,2.3,93,0.00,CLR,BKN,0.00,WeatherDisplay:10.37,2013-09-08 08:31:00,
2013-09-08 01:32:00,60.2,58.2,30.04,WSW,244,0.0,2.3,93,0.00,CLR,BKN,0.00,WeatherDisplay:10.37,2013-09-08 08:32:00,
2013-09-08 01:33:00,60.1,58.1,30.04,WSW,244,0.0,1.2,93,0.00,CLR,BKN,0.00,WeatherDisplay:10.37,2013-09-08 08:33:00,
2013-09-08 01:34:00,60.1,58.1,30.04,WSW,244,0.0,0.0,93,0.00,CLR,BKN,0.00,WeatherDisplay:10.37,2013-09-08 08:34:00,
2013-09-08 01:35:00,60.1,58.1,30.04,WSW,244,0.3,2.3,93,0.00,CLR,BKN,0.00,WeatherDisplay:10.37,2013-09-08 08:35:00,
2013-09-08 01:36:00,60.1,58.1,30.04,WSW,244,0.0,2.3,93,0.00,CLR,BKN,0.00,WeatherDisplay:10.37,2013-09-08 08:36:00,
2013-09-08 01:37:00,60.0,58.0,30.04,WSW,244,0.0,0.0,93,0.00,CLR,BKN,0.00,WeatherDisplay:10.37,2013-09-08 08:37:00,
2013-09-08 01:38:00,60.0,58.0,30.05,WSW,251,0.1,2.0,93,0.00,CLR,BKN,0.00,WeatherDisplay:10.37,2013-09-08 08:38:00,
2013-09-08 01:39:00,60.0,58.0,30.05,WSW,252,0.5,0.0,93,0.00,CLR,BKN,0.00,WeatherDisplay:10.37,2013-09-08 08:39:00,
2013-09-08 01:40:00,60.0,58.0,30.05,WSW,252,0.0,3.5,93,0.00,CLR,BKN,0.00,WeatherDisplay:10.37,2013-09-08 08:40:00,
2013-09-08 01:41:00,60.0,58.0,30.05,WSW,252,0.0,0.0,93,0.00,CLR,BKN,0.00,WeatherDisplay:10.37,2013-09-08 08:41:00,
2013-09-08 01:42:00,60.0,58.3,30.05,WSW,252,0.1,1.0,94,0.00,CLR,BKN,0.00,WeatherDisplay:10.37,2013-09-08 08:42:00,
2013-09-08 01:44:00,60.0,58.3,30.05,WSW,252,0.0,1.2,94,0.00,CLR,BKN,0.00,WeatherDisplay:10.37,2013-09-08 08:44:00,
2013-09-08 01:46:00,59.9,58.2,30.05,WSW,252,0.0,0.0,94,0.00,CLR,BKN,0.00,WeatherDisplay:10.37,2013-09-08 08:46:00,
2013-09-08 01:47:00,60.0,58.3,30.05,WSW,252,0.0,0.0,94,0.00,CLR,BKN,0.00,WeatherDisplay:10.37,2013-09-08 08:47:00,
2013-09-08 01:49:00,59.9,58.2,30.05,SE,130,0.1,1.2,94,0.00,CLR,BKN,0.00,WeatherDisplay:10.37,2013-09-08 08:49:00,
2013-09-08 01:51:00,59.9,58.2,30.05,SE,130,0.0,0.0,94,0.00,CLR,BKN,0.00,WeatherDisplay:10.37,2013-09-08 08:51:00,
2013-09-08 01:52:00,59.9,58.2,30.05,SE,130,0.0,0.0,94,0.00,CLR,BKN,0.00,WeatherDisplay:10.37,2013-09-08 08:52:00,
2013-09-08 01:55:00,59.8,58.1,30.05,SE,130,0.5,2.3,94,0.00,CLR,BKN,0.00,WeatherDisplay:10.37,2013-09-08 08:55:00,
2013-09-08 01:56:00,59.8,58.1,30.05,NE,52,1.3,2.3,94,0.00,CLR,BKN,0.00,WeatherDisplay:10.37,2013-09-08 08:56:00,
2013-09-08 01:57:00,59.8,58.1,30.05,NE,52,0.1,3.5,94,0.00,CLR,BKN,0.00,WeatherDisplay:10.37,2013-09-08 08:57:00,
2013-09-08 01:58:00,59.8,58.1,30.05,NE,52,0.0,1.2,94,0.00,CLR,BKN,0.00,WeatherDisplay:10.37,2013-09-08 08:58:00,
2013-09-08 02:00:00,59.9,58.2,30.05,NE,52,0.0,0.0,94,0.00,CLR,BKN,0.00,WeatherDisplay:10.37,2013-09-08 09:00:00,
2013-09-08 02:01:00,59.9,58.2,30.05,NE,52,0.0,0.0,94,0.00,CLR,BKN,0.00,WeatherDisplay:10.37,2013-09-08 09:01:00,
2013-09-08 02:02:00,59.9,58.2,30.05,NE,52,0.0,0.0,94,0.00,CLR,BKN,0.00,WeatherDisplay:10.37,2013-09-08 09:02:00,
2013-09-08 02:03:00,59.8,58.1,30.05,NE,52,0.0,0.0,94,0.00,CLR,BKN,0.00,WeatherDisplay:10.37,2013-09-08 09:03:00,
2013-09-08 02:05:00,59.8,58.1,30.05,NE,52,0.0,0.0,94,0.00,CLR,BKN,0.00,WeatherDisplay:10.37,2013-09-08 09:05:00,
2013-09-08 02:06:00,59.8,58.1,30.05,NE,52,0.0,0.0,94,0.00,CLR,BKN,0.00,WeatherDisplay:10.37,2013-09-08 09:06:00,
2013-09-08 02:07:00,59.8,58.1,30.05,NE,52,0.0,0.0,94,0.00,CLR,BKN,0.00,WeatherDisplay:10.37,2013-09-08 09:07:00,
2013-09-08 02:08:00,59.8,58.1,30.05,NE,52,0.0,0.0,94,0.00,CLR,BKN,0.00,WeatherDisplay:10.37,2013-09-08 09:08:00,
2013-09-08 02:09:00,59.8,58.1,30.05,NE,52,0.0,0.0,94,0.00,CLR,BKN,0.00,WeatherDisplay:10.37,2013-09-08 09:09:00,
2013-09-08 02:10:00,59.8,58.1,30.05,NE,52,0.0,0.0,94,0.00,CLR,BKN,0.00,WeatherDisplay:10.37,2013-09-08 09:10:00,
2013-09-08 02:11:00,59.8,58.1,30.05,NE,52,0.0,0.0,94,0.00,CLR,BKN,0.00,WeatherDisplay:10.37,2013-09-08 09:11:00,
2013-09-08 02:12:00,59.8,58.1,30.05,NE,52,0.0,0.0,94,0.00,CLR,BKN,0.00,WeatherDisplay:10.37,2013-09-08 09:12:00,
2013-09-08 02:13:00,59.8,58.1,30.05,NE,52,0.0,0.0,94,0.00,CLR,BKN,0.00,WeatherDisplay:10.37,2013-09-08 09:13:00,
2013-09-08 02:14:00,59.8,58.1,30.05,NE,52,0.0,0.0,94,0.00,CLR,BKN,0.00,WeatherDisplay:10.37,2013-09-08 09:14:00,
2013-09-08 02:15:00,59.7,58.0,30.05,NE,52,0.0,0.0,94,0.00,CLR,BKN,0.00,WeatherDisplay:10.37,2013-09-08 09:15:00,
2013-09-08 02:16:00,59.7,58.0,30.05,NE,53,0.1,1.2,94,0.00,CLR,BKN,0.00,WeatherDisplay:10.37,2013-09-08 09:16:00,
2013-09-08 02:18:00,59.7,58.0,30.05,NE,52,0.0,1.2,94,0.00,CLR,BKN,0.00,WeatherDisplay:10.37,2013-09-08 09:18:00,
2013-09-08 02:19:00,59.7,58.0,30.05,NE,52,0.8,1.2,94,0.00,CLR,BKN,0.00,WeatherDisplay:10.37,2013-09-08 09:19:00,
2013-09-08 02:20:00,59.8,58.1,30.05,NE,52,0.0,3.5,94,0.00,CLR,BKN,0.00,WeatherDisplay:10.37,2013-09-08 09:20:00,
2013-09-08 02:21:00,59.8,58.1,30.05,NW,312,0.4,3.5,94,0.00,CLR,BKN,0.00,WeatherDisplay:10.37,2013-09-08 09:21:00,
2013-09-08 02:23:00,59.7,58.0,30.05,NW,312,0.0,0.0,94,0.00,CLR,BKN,0.00,WeatherDisplay:10.37,2013-09-08 09:23:00,
2013-09-08 02:24:00,59.7,58.0,30.05,NW,312,0.1,0.0,94,0.00,CLR,BKN,0.00,WeatherDisplay:10.37,2013-09-08 09:24:00,
2013-09-08 02:25:00,59.7,58.0,30.05,NW,312,0.1,0.0,94,0.00,CLR,BKN,0.00,WeatherDisplay:10.37,2013-09-08 09:25:00,
2013-09-08 02:26:00,59.7,58.0,30.05,NW,312,0.0,0.0,94,0.00,CLR,BKN,0.00,WeatherDisplay:10.37,2013-09-08 09:26:00,
2013-09-08 02:28:00,59.6,57.9,30.05,NW,312,0.0,0.0,94,0.00,CLR,BKN,0.00,WeatherDisplay:10.37,2013-09-08 09:28:00,
2013-09-08 02:30:00,59.6,57.9,30.05,NW,312,0.0,0.0,94,0.00,CLR,BKN,0.00,WeatherDisplay:10.37,2013-09-08 09:30:00,
2013-09-08 02:31:00,59.6,57.9,30.05,NW,312,0.0,0.0,94,0.00,CLR,BKN,0.00,WeatherDisplay:10.37,2013-09-08 09:31:00,
2013-09-08 02:32:00,59.6,57.9,30.05,NW,312,0.0,0.0,94,0.00,CLR,BKN,0.00,WeatherDisplay:10.37,2013-09-08 09:32:00,
2013-09-08 02:34:00,59.5,57.8,30.05,NW,312,0.0,0.0,94,0.00,CLR,BKN,0.00,WeatherDisplay:10.37,2013-09-08 09:34:00,
2013-09-08 02:35:00,59.5,57.8,30.05,NW,312,0.0,0.0,94,0.00,CLR,BKN,0.00,WeatherDisplay:10.37,2013-09-08 09:35:00,
2013-09-08 02:36:00,59.5,57.8,30.05,NW,312,0.0,0.0,94,0.00,CLR,BKN,0.00,WeatherDisplay:10.37,2013-09-08 09:36:00,
2013-09-08 02:37:00,59.5,57.8,30.05,NW,312,0.0,0.0,94,0.00,CLR,BKN,0.00,WeatherDisplay:10.37,2013-09-08 09:37:00,
2013-09-08 02:38:00,59.5,57.8,30.05,NW,312,0.0,0.0,94,0.00,CLR,BKN,0.00,WeatherDisplay:10.37,2013-09-08 09:38:00,
2013-09-08 02:39:00,59.5,57.8,30.05,NW,312,0.1,2.0,94,0.00,CLR,BKN,0.00,WeatherDisplay:10.37,2013-09-08 09:39:00,
2013-09-08 02:40:00,59.4,57.7,30.05,NW,312,0.0,2.3,94,0.00,CLR,BKN,0.00,WeatherDisplay:10.37,2013-09-08 09:40:00,
2013-09-08 02:41:00,59.4,57.7,30.05,NW,312,0.0,0.0,94,0.00,CLR,BKN,0.00,WeatherDisplay:10.37,2013-09-08 09:41:00,
2013-09-08 02:42:00,59.4,57.7,30.05,NW,312,0.0,0.0,94,0.00,CLR,BKN,0.00,WeatherDisplay:10.37,2013-09-08 09:42:00,
2013-09-08 02:43:00,59.4,57.7,30.05,NW,312,0.0,0.0,94,0.00,CLR,BKN,0.00,WeatherDisplay:10.37,2013-09-08 09:43:00,
2013-09-08 02:44:00,59.4,57.7,30.05,NW,312,0.0,0.0,94,0.00,CLR,BKN,0.00,WeatherDisplay:10.37,2013-09-08 09:44:00,
2013-09-08 02:45:00,59.4,57.7,30.05,NW,312,0.0,1.2,94,0.00,CLR,BKN,0.00,WeatherDisplay:10.37,2013-09-08 09:45:00,
2013-09-08 02:47:00,59.4,57.7,30.05,NW,312,0.1,1.2,94,0.00,CLR,BKN,0.00,WeatherDisplay:10.37,2013-09-08 09:47:00,
2013-09-08 02:48:00,59.3,57.6,30.05,NW,312,0.0,0.0,94,0.00,CLR,BKN,0.00,WeatherDisplay:10.37,2013-09-08 09:48:00,
2013-09-08 02:49:00,59.3,57.6,30.05,NW,312,0.0,0.0,94,0.00,CLR,BKN,0.00,WeatherDisplay:10.37,2013-09-08 09:49:00,
2013-09-08 02:50:00,59.3,57.6,30.05,NW,312,0.0,0.0,94,0.00,CLR,BKN,0.00,WeatherDisplay:10.37,2013-09-08 09:50:00,
2013-09-08 02:52:00,59.3,57.9,30.05,NW,312,0.0,0.0,95,0.00,CLR,BKN,0.00,WeatherDisplay:10.37,2013-09-08 09:52:00,
2013-09-08 02:54:00,59.3,57.9,30.05,NW,312,0.0,0.0,95,0.00,CLR,BKN,0.00,WeatherDisplay:10.37,2013-09-08 09:54:00,
2013-09-08 02:55:00,59.2,57.8,30.05,NW,312,0.2,1.2,95,0.00,CLR,BKN,0.00,WeatherDisplay:10.37,2013-09-08 09:55:00,
2013-09-08 02:58:00,59.2,57.8,30.05,NW,312,0.0,0.0,95,0.00,CLR,BKN,0.00,WeatherDisplay:10.37,2013-09-08 09:58:00,
2013-09-08 02:59:00,59.1,57.7,30.05,NW,312,0.0,0.0,95,0.00,CLR,BKN,0.00,WeatherDisplay:10.37,2013-09-08 09:59:00,
2013-09-08 03:01:00,59.1,57.7,30.05,NW,312,0.0,0.0,95,0.00,CLR,BKN,0.00,WeatherDisplay:10.37,2013-09-08 10:01:00,
2013-09-08 03:02:00,59.1,57.7,30.05,NW,312,0.0,0.0,95,0.00,CLR,BKN,0.00,WeatherDisplay:10.37,2013-09-08 10:02:00,
2013-09-08 03:04:00,59.1,57.7,30.05,NW,312,0.0,1.2,95,0.00,CLR,BKN,0.00,WeatherDisplay:10.37,2013-09-08 10:04:00,
2013-09-08 03:05:00,59.1,57.7,30.05,NW,312,0.0,0.0,95,0.00,CLR,BKN,0.00,WeatherDisplay:10.37,2013-09-08 10:05:00,
2013-09-08 03:06:00,59.1,57.7,30.05,NW,312,0.1,0.0,95,0.00,CLR,BKN,0.00,WeatherDisplay:10.37,2013-09-08 10:06:00,
2013-09-08 03:08:00,59.1,57.7,30.05,ENE,69,0.1,3.0,95,0.00,CLR,BKN,0.00,WeatherDisplay:10.37,2013-09-08 10:08:00,
2013-09-08 03:10:00,59.1,57.7,30.05,ENE,69,0.2,1.2,95,0.00,CLR,BKN,0.00,WeatherDisplay:10.37,2013-09-08 10:10:00,
2013-09-08 03:11:00,59.1,57.7,30.05,ENE,69,0.0,0.0,95,0.00,CLR,BKN,0.00,WeatherDisplay:10.37,2013-09-08 10:11:00,
2013-09-08 03:12:00,59.1,57.7,30.05,ENE,69,0.0,0.0,95,0.00,CLR,BKN,0.00,WeatherDisplay:10.37,2013-09-08 10:12:00,
2013-09-08 03:13:00,59.1,57.7,30.05,ENE,69,0.0,0.0,95,0.00,CLR,BKN,0.00,WeatherDisplay:10.37,2013-09-08 10:13:00,
2013-09-08 03:15:00,59.0,57.6,30.05,ENE,69,0.0,0.0,95,0.00,CLR,BKN,0.00,WeatherDisplay:10.37,2013-09-08 10:15:00,
2013-09-08 03:16:00,59.0,57.6,30.05,ENE,69,0.0,0.0,95,0.00,CLR,BKN,0.00,WeatherDisplay:10.37,2013-09-08 10:16:00,
2013-09-08 03:18:00,58.9,57.5,30.05,ENE,69,0.1,1.2,95,0.00,CLR,BKN,0.00,WeatherDisplay:10.37,2013-09-08 10:18:00,
2013-09-08 03:20:00,58.8,57.4,30.05,ENE,69,0.6,2.3,95,0.00,CLR,BKN,0.00,WeatherDisplay:10.37,2013-09-08 10:20:00,
2013-09-08 03:21:00,58.7,57.3,30.04,ENE,69,0.0,2.3,95,0.00,CLR,BKN,0.00,WeatherDisplay:10.37,2013-09-08 10:21:00,
2013-09-08 03:23:00,58.6,57.2,30.05,ENE,69,0.0,0.0,95,0.00,CLR,BKN,0.00,WeatherDisplay:10.37,2013-09-08 10:23:00,
2013-09-08 03:24:00,58.6,57.2,30.05,ENE,69,0.0,0.0,95,0.00,CLR,BKN,0.00,WeatherDisplay:10.37,2013-09-08 10:24:00,
2013-09-08 03:25:00,58.5,57.4,30.04,ENE,69,0.0,0.0,96,0.00,CLR,BKN,0.00,WeatherDisplay:10.37,2013-09-08 10:25:00,
2013-09-08 03:26:00,58.5,57.4,30.05,ENE,69,0.0,1.2,96,0.00,CLR,BKN,0.00,WeatherDisplay:10.37,2013-09-08 10:26:00,
2013-09-08 03:27:00,58.4,57.3,30.05,ENE,69,0.0,0.0,96,0.00,CLR,BKN,0.00,WeatherDisplay:10.37,2013-09-08 10:27:00,
2013-09-08 03:29:00,58.3,57.2,30.04,ENE,64,0.0,0.0,96,0.00,CLR,BKN,0.00,WeatherDisplay:10.37,2013-09-08 10:29:00,
2013-09-08 03:30:00,58.3,57.2,30.04,ENE,64,0.0,1.2,96,0.00,CLR,BKN,0.00,WeatherDisplay:10.37,2013-09-08 10:30:00,
2013-09-08 03:31:00,58.2,57.1,30.05,ENE,64,0.0,0.0,96,0.00,CLR,BKN,0.00,WeatherDisplay:10.37,2013-09-08 10:31:00,
2013-09-08 03:32:00,58.2,57.1,30.05,ENE,64,0.0,0.0,96,0.00,CLR,BKN,0.00,WeatherDisplay:10.37,2013-09-08 10:32:00,
2013-09-08 03:34:00,58.2,57.1,30.05,ENE,64,0.0,0.0,96,0.00,CLR,BKN,0.00,WeatherDisplay:10.37,2013-09-08 10:34:00,
2013-09-08 03:35:00,58.2,57.1,30.05,ENE,64,0.0,0.0,96,0.00,CLR,BKN,0.00,WeatherDisplay:10.37,2013-09-08 10:35:00,
2013-09-08 03:37:00,58.1,57.3,30.05,ENE,64,0.0,0.0,97,0.00,CLR,BKN,0.00,WeatherDisplay:10.37,2013-09-08 10:37:00,
2013-09-08 03:38:00,58.1,57.3,30.05,ENE,64,0.0,0.0,97,0.00,CLR,BKN,0.00,WeatherDisplay:10.37,2013-09-08 10:38:00,
2013-09-08 03:39:00,58.1,57.3,30.05,ENE,64,0.2,2.3,97,0.00,CLR,BKN,0.00,WeatherDisplay:10.37,2013-09-08 10:39:00,
2013-09-08 03:40:00,58.1,57.3,30.05,ENE,64,0.0,0.0,97,0.00,CLR,BKN,0.00,WeatherDisplay:10.37,2013-09-08 10:40:00,
2013-09-08 03:42:00,58.1,57.3,30.05,ENE,64,0.0,0.0,97,0.00,CLR,BKN,0.00,WeatherDisplay:10.37,2013-09-08 10:42:00,
2013-09-08 03:43:00,58.1,57.3,30.05,ENE,64,0.0,0.0,97,0.00,CLR,BKN,0.00,WeatherDisplay:10.37,2013-09-08 10:43:00,
2013-09-08 03:46:00,58.1,57.3,30.05,ENE,64,0.0,0.0,97,0.00,CLR,BKN,0.00,WeatherDisplay:10.37,2013-09-08 10:46:00,
2013-09-08 03:47:00,58.0,57.2,30.05,ENE,64,0.0,0.0,97,0.00,CLR,BKN,0.00,WeatherDisplay:10.37,2013-09-08 10:47:00,
2013-09-08 03:48:00,58.0,57.2,30.05,ENE,64,0.0,0.0,97,0.00,CLR,BKN,0.00,WeatherDisplay:10.37,2013-09-08 10:48:00,
2013-09-08 03:51:00,58.0,57.2,30.05,ENE,63,0.1,1.2,97,0.00,CLR,BKN,0.00,WeatherDisplay:10.37,2013-09-08 10:51:00,
2013-09-08 03:52:00,58.0,57.2,30.05,ENE,63,0.0,1.2,97,0.00,CLR,BKN,0.00,WeatherDisplay:10.37,2013-09-08 10:52:00,
2013-09-08 03:53:00,57.9,57.1,30.05,ENE,63,0.0,0.0,97,0.00,CLR,BKN,0.00,WeatherDisplay:10.37,2013-09-08 10:53:00,
2013-09-08 03:55:00,57.9,57.1,30.05,ENE,63,0.3,2.3,97,0.00,CLR,BKN,0.00,WeatherDisplay:10.37,2013-09-08 10:55:00,
2013-09-08 03:57:00,57.9,57.1,30.05,ENE,63,0.0,0.0,97,0.00,CLR,BKN,0.00,WeatherDisplay:10.37,2013-09-08 10:57:00,
2013-09-08 03:59:00,57.9,57.1,30.05,ENE,63,0.0,0.0,97,0.00,CLR,BKN,0.00,WeatherDisplay:10.37,2013-09-08 10:59:00,
2013-09-08 04:00:00,57.8,57.0,30.05,NE,49,1.5,4.6,97,0.00,CLR,BKN,0.00,WeatherDisplay:10.37,2013-09-08 11:00:00,
2013-09-08 04:02:00,57.8,57.0,30.05,NE,49,0.0,0.0,97,0.00,CLR,BKN,0.00,WeatherDisplay:10.37,2013-09-08 11:02:00,
2013-09-08 04:03:00,57.8,57.0,30.06,NE,49,0.0,0.0,97,0.00,CLR,BKN,0.00,WeatherDisplay:10.37,2013-09-08 11:03:00,
2013-09-08 04:04:00,57.8,57.0,30.06,NE,49,0.0,0.0,97,0.00,CLR,BKN,0.00,WeatherDisplay:10.37,2013-09-08 11:04:00,
2013-09-08 04:05:00,57.8,57.2,30.06,NE,47,0.2,2.3,98,0.00,CLR,BKN,0.00,WeatherDisplay:10.37,2013-09-08 11:05:00,
2013-09-08 04:07:00,57.8,57.2,30.06,NE,47,0.0,1.2,98,0.00,CLR,BKN,0.00,WeatherDisplay:10.37,2013-09-08 11:07:00,
2013-09-08 04:08:00,57.8,57.2,30.06,NE,47,0.0,0.0,98,0.00,CLR,BKN,0.00,WeatherDisplay:10.37,2013-09-08 11:08:00,
2013-09-08 04:10:00,57.8,57.2,30.06,NE,47,0.1,0.0,98,0.00,CLR,BKN,0.00,WeatherDisplay:10.37,2013-09-08 11:10:00,
2013-09-08 04:11:00,57.8,57.2,30.06,NE,47,0.0,0.0,98,0.00,CLR,BKN,0.00,WeatherDisplay:10.37,2013-09-08 11:11:00,
2013-09-08 04:12:00,57.8,57.2,30.06,NE,47,0.3,2.3,98,0.00,CLR,BKN,0.00,WeatherDisplay:10.37,2013-09-08 11:12:00,
2013-09-08 04:13:00,57.8,57.2,30.06,NE,47,0.1,2.3,98,0.00,CLR,BKN,0.00,WeatherDisplay:10.37,2013-09-08 11:13:00,
2013-09-08 04:15:00,57.8,57.2,30.06,NE,47,0.0,0.0,98,0.00,CLR,BKN,0.00,WeatherDisplay:10.37,2013-09-08 11:15:00,
2013-09-08 04:16:00,57.8,57.2,30.06,NE,47,0.0,0.0,98,0.00,CLR,BKN,0.00,WeatherDisplay:10.37,2013-09-08 11:16:00,
2013-09-08 04:18:00,57.8,57.2,30.06,NE,47,0.0,0.0,98,0.00,CLR,BKN,0.00,WeatherDisplay:10.37,2013-09-08 11:18:00,
2013-09-08 04:19:00,57.8,57.2,30.06,NE,47,0.0,0.0,98,0.00,CLR,BKN,0.00,WeatherDisplay:10.37,2013-09-08 11:19:00,
2013-09-08 04:20:00,57.8,57.2,30.06,NE,47,0.0,0.0,98,0.00,CLR,BKN,0.00,WeatherDisplay:10.37,2013-09-08 11:20:00,
2013-09-08 04:21:00,57.8,57.2,30.06,NE,47,0.0,0.0,98,0.00,CLR,BKN,0.00,WeatherDisplay:10.37,2013-09-08 11:21:00,
2013-09-08 04:23:00,57.8,57.2,30.06,NE,47,0.0,0.0,98,0.00,CLR,BKN,0.00,WeatherDisplay:10.37,2013-09-08 11:23:00,
2013-09-08 04:25:00,57.8,57.2,30.06,NE,47,0.0,0.0,98,0.00,CLR,BKN,0.00,WeatherDisplay:10.37,2013-09-08 11:25:00,
2013-09-08 04:26:00,57.8,57.2,30.06,NW,312,0.0,2.0,98,0.00,CLR,BKN,0.00,WeatherDisplay:10.37,2013-09-08 11:26:00,
2013-09-08 04:27:00,57.8,57.2,30.06,NW,312,0.3,2.3,98,0.00,CLR,BKN,0.00,WeatherDisplay:10.37,2013-09-08 11:27:00,
2013-09-08 04:28:00,57.8,57.2,30.06,NW,312,0.0,2.3,98,0.00,CLR,BKN,0.00,WeatherDisplay:10.37,2013-09-08 11:28:00,
2013-09-08 04:29:00,57.8,57.2,30.06,NW,312,0.0,0.0,98,0.00,CLR,BKN,0.00,WeatherDisplay:10.37,2013-09-08 11:29:00,
2013-09-08 04:31:00,57.8,57.2,30.06,NW,312,0.0,0.0,98,0.00,CLR,BKN,0.00,WeatherDisplay:10.37,2013-09-08 11:31:00,
2013-09-08 04:33:00,57.8,57.2,30.06,NW,312,0.0,0.0,98,0.00,CLR,BKN,0.00,WeatherDisplay:10.37,2013-09-08 11:33:00,
2013-09-08 04:34:00,57.8,57.2,30.06,NW,312,0.0,0.0,98,0.00,CLR,BKN,0.00,WeatherDisplay:10.37,2013-09-08 11:34:00,
2013-09-08 04:36:00,57.7,57.1,30.06,NW,312,0.0,0.0,98,0.00,CLR,BKN,0.00,WeatherDisplay:10.37,2013-09-08 11:36:00,
2013-09-08 04:38:00,57.7,57.1,30.06,NW,318,0.0,2.3,98,0.00,CLR,BKN,0.00,WeatherDisplay:10.37,2013-09-08 11:38:00,
2013-09-08 04:39:00,57.7,57.1,30.06,NW,318,0.0,0.0,98,0.00,CLR,BKN,0.00,WeatherDisplay:10.37,2013-09-08 11:39:00,
2013-09-08 04:41:00,57.7,57.1,30.06,NW,318,0.1,2.0,98,0.00,CLR,BKN,0.00,WeatherDisplay:10.37,2013-09-08 11:41:00,
2013-09-08 04:42:00,57.7,57.1,30.06,NW,318,0.3,1.2,98,0.00,CLR,BKN,0.00,WeatherDisplay:10.37,2013-09-08 11:42:00,
2013-09-08 04:43:00,57.7,57.1,30.06,NW,318,0.0,2.3,98,0.00,CLR,BKN,0.00,WeatherDisplay:10.37,2013-09-08 11:43:00,
2013-09-08 04:44:00,57.7,57.1,30.06,NW,318,0.0,0.0,98,0.00,CLR,BKN,0.00,WeatherDisplay:10.37,2013-09-08 11:44:00,
2013-09-08 04:46:00,57.7,57.1,30.06,NW,318,0.0,0.0,98,0.00,CLR,BKN,0.00,WeatherDisplay:10.37,2013-09-08 11:46:00,
2013-09-08 04:47:00,57.7,57.1,30.06,NW,318,0.1,0.0,98,0.00,CLR,BKN,0.00,WeatherDisplay:10.37,2013-09-08 11:47:00,
2013-09-08 04:48:00,57.7,57.1,30.06,NW,318,0.0,1.2,98,0.00,CLR,BKN,0.00,WeatherDisplay:10.37,2013-09-08 11:48:00,
2013-09-08 04:49:00,57.7,57.1,30.06,NW,318,0.0,0.0,98,0.00,CLR,BKN,0.00,WeatherDisplay:10.37,2013-09-08 11:49:00,
2013-09-08 04:52:00,57.6,57.0,30.06,NW,318,0.0,0.0,98,0.00,CLR,BKN,0.00,WeatherDisplay:10.37,2013-09-08 11:52:00,
2013-09-08 04:53:00,57.7,57.1,30.06,NW,318,0.0,0.0,98,0.00,CLR,BKN,0.00,WeatherDisplay:10.37,2013-09-08 11:53:00,
2013-09-08 04:54:00,57.6,57.0,30.06,NW,318,0.0,0.0,98,0.00,CLR,BKN,0.00,WeatherDisplay:10.37,2013-09-08 11:54:00,
2013-09-08 04:55:00,57.7,57.1,30.06,NW,318,0.0,0.0,98,0.00,CLR,BKN,0.00,WeatherDisplay:10.37,2013-09-08 11:55:00,
2013-09-08 04:57:00,57.6,57.0,30.06,NW,318,0.0,1.2,98,0.00,CLR,BKN,0.00,WeatherDisplay:10.37,2013-09-08 11:57:00,
2013-09-08 04:58:00,57.6,57.0,30.06,NW,318,0.0,0.0,98,0.00,CLR,BKN,0.00,WeatherDisplay:10.37,2013-09-08 11:58:00,
2013-09-08 04:59:00,57.6,57.0,30.06,NW,318,0.0,0.0,98,0.00,CLR,BKN,0.00,WeatherDisplay:10.37,2013-09-08 11:59:00,
2013-09-08 05:00:00,57.6,57.0,30.06,NW,318,0.0,0.0,98,0.00,CLR,BKN,0.00,WeatherDisplay:10.37,2013-09-08 12:00:00,
2013-09-08 05:02:00,57.6,57.0,30.06,NW,318,0.0,0.0,98,0.00,CLR,BKN,0.00,WeatherDisplay:10.37,2013-09-08 12:02:00,
2013-09-08 05:03:00,57.6,57.0,30.06,NW,318,0.0,0.0,98,0.00,CLR,BKN,0.00,WeatherDisplay:10.37,2013-09-08 12:03:00,
2013-09-08 05:04:00,57.6,57.0,30.06,NW,318,0.0,0.0,98,0.00,CLR,BKN,0.00,WeatherDisplay:10.37,2013-09-08 12:04:00,
2013-09-08 05:05:00,57.6,57.0,30.07,NW,318,0.0,0.0,98,0.00,CLR,BKN,0.00,WeatherDisplay:10.37,2013-09-08 12:05:00,
2013-09-08 05:06:00,57.6,57.0,30.06,NW,318,0.0,0.0,98,0.00,CLR,BKN,0.00,WeatherDisplay:10.37,2013-09-08 12:06:00,
2013-09-08 05:07:00,57.6,57.0,30.06,NW,318,0.2,2.3,98,0.00,CLR,BKN,0.00,WeatherDisplay:10.37,2013-09-08 12:07:00,
2013-09-08 05:09:00,57.6,57.0,30.06,NW,319,0.3,2.3,98,0.00,CLR,BKN,0.00,WeatherDisplay:10.37,2013-09-08 12:09:00,
2013-09-08 05:10:00,57.6,57.0,30.06,NW,319,0.3,2.3,98,0.00,CLR,BKN,0.00,WeatherDisplay:10.37,2013-09-08 12:10:00,
2013-09-08 05:12:00,57.6,57.0,30.06,NW,319,0.0,0.0,98,0.00,CLR,BKN,0.00,WeatherDisplay:10.37,2013-09-08 12:12:00,
2013-09-08 05:13:00,57.6,57.0,30.06,NW,319,0.0,0.0,98,0.00,CLR,BKN,0.00,WeatherDisplay:10.37,2013-09-08 12:13:00,
2013-09-08 05:14:00,57.6,57.0,30.06,NW,319,0.2,1.0,98,0.00,CLR,BKN,0.00,WeatherDisplay:10.37,2013-09-08 12:14:00,
2013-09-08 05:15:00,57.6,57.0,30.06,NW,319,0.2,0.0,98,0.00,CLR,BKN,0.00,WeatherDisplay:10.37,2013-09-08 12:15:00,
2013-09-08 05:16:00,57.5,56.9,30.06,NW,319,0.0,1.2,98,0.00,CLR,BKN,0.00,WeatherDisplay:10.37,2013-09-08 12:16:00,
2013-09-08 05:17:00,57.5,56.9,30.06,NW,319,0.0,0.0,98,0.00,CLR,BKN,0.00,WeatherDisplay:10.37,2013-09-08 12:17:00,
2013-09-08 05:18:00,57.5,56.9,30.06,NW,319,0.0,0.0,98,0.00,CLR,BKN,0.00,WeatherDisplay:10.37,2013-09-08 12:18:00,
2013-09-08 05:19:00,57.5,56.9,30.06,North,355,1.1,3.5,98,0.00,CLR,BKN,0.00,WeatherDisplay:10.37,2013-09-08 12:19:00,
2013-09-08 05:20:00,57.5,56.9,30.06,NW,325,1.0,3.0,98,0.00,CLR,BKN,0.00,WeatherDisplay:10.37,2013-09-08 12:20:00,
2013-09-08 05:21:00,57.5,56.9,30.06,North,355,0.0,3.5,98,0.00,CLR,BKN,0.00,WeatherDisplay:10.37,2013-09-08 12:21:00,
2013-09-08 05:23:00,57.4,56.8,30.06,North,355,0.0,0.0,98,0.00,CLR,BKN,0.00,WeatherDisplay:10.37,2013-09-08 12:23:00,
2013-09-08 05:25:00,57.4,56.8,30.06,East,86,0.0,2.3,98,0.00,CLR,BKN,0.00,WeatherDisplay:10.37,2013-09-08 12:25:00,
2013-09-08 05:26:00,57.4,56.8,30.06,East,86,0.0,0.0,98,0.00,CLR,BKN,0.00,WeatherDisplay:10.37,2013-09-08 12:26:00,
2013-09-08 05:28:00,57.4,56.8,30.06,East,85,0.0,0.0,98,0.00,CLR,BKN,0.00,WeatherDisplay:10.37,2013-09-08 12:28:00,
2013-09-08 05:29:00,57.4,56.8,30.06,East,85,0.1,2.0,98,0.00,CLR,BKN,0.00,WeatherDisplay:10.37,2013-09-08 12:29:00,
2013-09-08 05:30:00,57.4,56.8,30.06,East,82,0.6,3.5,98,0.00,CLR,BKN,0.00,WeatherDisplay:10.37,2013-09-08 12:30:00,
2013-09-08 05:32:00,57.3,57.0,30.06,East,82,0.0,0.0,99,0.00,CLR,BKN,0.00,WeatherDisplay:10.37,2013-09-08 12:32:00,
2013-09-08 05:34:00,57.3,57.0,30.06,East,82,0.0,0.0,99,0.00,CLR,BKN,0.00,WeatherDisplay:10.37,2013-09-08 12:34:00,
2013-09-08 05:35:00,57.3,57.0,30.06,ENE,59,0.0,1.2,99,0.00,CLR,BKN,0.00,WeatherDisplay:10.37,2013-09-08 12:35:00,
2013-09-08 05:37:00,57.3,57.0,30.06,ENE,59,0.0,0.0,99,0.00,CLR,BKN,0.00,WeatherDisplay:10.37,2013-09-08 12:37:00,
2013-09-08 05:38:00,57.3,57.0,30.06,ENE,59,0.0,0.0,99,0.00,CLR,BKN,0.00,WeatherDisplay:10.37,2013-09-08 12:38:00,
2013-09-08 05:39:00,57.3,57.0,30.06,ENE,59,0.0,0.0,99,0.00,CLR,BKN,0.00,WeatherDisplay:10.37,2013-09-08 12:39:00,
2013-09-08 05:40:00,57.3,57.0,30.06,ENE,59,0.0,0.0,99,0.00,CLR,BKN,0.00,WeatherDisplay:10.37,2013-09-08 12:40:00,
2013-09-08 05:41:00,57.2,56.9,30.06,NNE,33,0.3,0.0,99,0.00,CLR,BKN,0.00,WeatherDisplay:10.37,2013-09-08 12:41:00,
2013-09-08 05:43:00,57.3,56.7,30.06,NE,45,1.0,1.2,98,0.00,CLR,BKN,0.00,WeatherDisplay:10.37,2013-09-08 12:43:00,
2013-09-08 05:44:00,57.3,56.7,30.06,NE,45,1.0,1.2,98,0.00,CLR,BKN,0.00,WeatherDisplay:10.37,2013-09-08 12:44:00,
2013-09-08 05:45:00,57.3,56.7,30.06,NE,45,1.0,1.2,98,0.00,CLR,BKN,0.00,WeatherDisplay:10.37,2013-09-08 12:45:00,
2013-09-08 05:46:00,57.2,56.6,30.06,NE,44,0.5,1.2,98,0.00,CLR,BKN,0.00,WeatherDisplay:10.37,2013-09-08 12:46:00,
2013-09-08 05:49:00,57.2,56.9,30.06,NE,38,1.1,4.0,99,0.00,CLR,BKN,0.00,WeatherDisplay:10.37,2013-09-08 12:49:00,
2013-09-08 05:50:00,57.2,56.9,30.05,NNW,344,0.0,4.6,99,0.00,CLR,BKN,0.00,WeatherDisplay:10.37,2013-09-08 12:50:00,
2013-09-08 05:51:00,57.2,56.9,30.06,NNW,344,0.0,0.0,99,0.00,CLR,BKN,0.00,WeatherDisplay:10.37,2013-09-08 12:51:00,
2013-09-08 05:54:00,57.2,56.9,30.06,NNE,31,0.5,3.5,99,0.00,CLR,BKN,0.00,WeatherDisplay:10.37,2013-09-08 12:54:00,
2013-09-08 05:55:00,57.2,56.9,30.06,NNW,338,0.1,2.3,99,0.00,CLR,BKN,0.00,WeatherDisplay:10.37,2013-09-08 12:55:00,
2013-09-08 05:56:00,57.2,56.9,30.06,NNE,30,0.0,1.2,99,0.00,CLR,BKN,0.00,WeatherDisplay:10.37,2013-09-08 12:56:00,
2013-09-08 06:00:00,57.2,56.9,30.06,NNE,14,0.0,0.0,99,0.00,CLR,BKN,0.00,WeatherDisplay:10.37,2013-09-08 13:00:00,
2013-09-08 06:01:00,57.1,56.8,30.06,NE,55,0.0,0.0,99,0.00,CLR,BKN,0.00,WeatherDisplay:10.37,2013-09-08 13:01:00,
2013-09-08 06:02:00,57.1,56.8,30.06,NE,50,0.8,3.5,99,0.00,CLR,BKN,0.00,WeatherDisplay:10.37,2013-09-08 13:02:00,
2013-09-08 06:05:00,57.1,56.8,30.06,NE,46,0.1,1.2,99,0.00,CLR,BKN,0.00,WeatherDisplay:10.37,2013-09-08 13:05:00,
2013-09-08 06:06:00,57.1,56.8,30.06,ENE,58,0.6,1.2,99,0.00,CLR,BKN,0.00,WeatherDisplay:10.37,2013-09-08 13:06:00,
2013-09-08 06:07:00,57.1,56.8,30.06,ENE,58,0.5,2.3,99,0.00,CLR,BKN,0.00,WeatherDisplay:10.37,2013-09-08 13:07:00,
2013-09-08 06:10:00,57.1,56.8,30.06,ENE,64,0.8,3.5,99,0.00,CLR,BKN,0.00,WeatherDisplay:10.37,2013-09-08 13:10:00,
2013-09-08 06:11:00,57.1,56.8,30.06,ENE,64,0.1,3.5,99,0.00,CLR,BKN,0.00,WeatherDisplay:10.37,2013-09-08 13:11:00,
2013-09-08 06:12:00,57.1,56.8,30.06,ENE,64,0.0,3.5,99,0.00,CLR,BKN,0.00,WeatherDisplay:10.37,2013-09-08 13:12:00,
2013-09-08 06:13:00,57.1,56.8,30.06,North,5,0.2,3.5,99,0.00,CLR,BKN,0.00,WeatherDisplay:10.37,2013-09-08 13:13:00,
2013-09-08 06:14:00,57.1,56.8,30.06,ENE,63,0.6,3.5,99,0.00,CLR,BKN,0.00,WeatherDisplay:10.37,2013-09-08 13:14:00,
2013-09-08 06:15:00,57.1,56.8,30.06,NE,38,0.1,3.5,99,0.00,CLR,BKN,0.00,WeatherDisplay:10.37,2013-09-08 13:15:00,
2013-09-08 06:17:00,57.1,56.8,30.06,NE,36,0.1,0.0,99,0.00,CLR,BKN,0.00,WeatherDisplay:10.37,2013-09-08 13:17:00,
2013-09-08 06:18:00,57.1,56.8,30.06,NE,36,0.0,1.2,99,0.00,CLR,BKN,0.00,WeatherDisplay:10.37,2013-09-08 13:18:00,
2013-09-08 06:19:00,57.1,56.8,30.06,ENE,58,0.1,1.0,99,0.00,CLR,BKN,0.00,WeatherDisplay:10.37,2013-09-08 13:19:00,
2013-09-08 06:20:00,57.1,56.8,30.06,NE,48,0.0,1.0,99,0.00,CLR,BKN,0.00,WeatherDisplay:10.37,2013-09-08 13:20:00,
2013-09-08 06:22:00,57.1,56.8,30.06,NE,44,1.1,2.0,99,0.00,CLR,BKN,0.00,WeatherDisplay:10.37,2013-09-08 13:22:00,
2013-09-08 06:23:00,57.1,56.8,30.06,NE,48,0.1,1.2,99,0.00,CLR,BKN,0.00,WeatherDisplay:10.37,2013-09-08 13:23:00,
2013-09-08 06:24:00,57.1,56.8,30.06,ENE,63,0.0,1.2,99,0.00,CLR,BKN,0.00,WeatherDisplay:10.37,2013-09-08 13:24:00,
2013-09-08 06:26:00,57.1,56.8,30.06,NE,43,0.2,2.3,99,0.00,CLR,BKN,0.00,WeatherDisplay:10.37,2013-09-08 13:26:00,
2013-09-08 06:27:00,57.1,56.8,30.06,NE,43,0.2,2.3,99,0.00,CLR,BKN,0.00,WeatherDisplay:10.37,2013-09-08 13:27:00,
2013-09-08 06:28:00,57.1,56.8,30.07,ENE,58,1.4,3.5,99,0.00,CLR,BKN,0.00,WeatherDisplay:10.37,2013-09-08 13:28:00,
2013-09-08 06:30:00,57.1,56.8,30.06,NW,325,0.5,3.5,99,0.00,CLR,BKN,0.00,WeatherDisplay:10.37,2013-09-08 13:30:00,
2013-09-08 06:31:00,57.1,56.8,30.06,NW,323,0.1,1.2,99,0.00,CLR,BKN,0.00,WeatherDisplay:10.37,2013-09-08 13:31:00,
2013-09-08 06:32:00,57.1,56.8,30.06,NW,323,0.1,1.2,99,0.00,CLR,BKN,0.00,WeatherDisplay:10.37,2013-09-08 13:32:00,
2013-09-08 06:33:00,57.1,56.8,30.06,NNW,330,0.0,1.2,99,0.00,CLR,BKN,0.00,WeatherDisplay:10.37,2013-09-08 13:33:00,
2013-09-08 06:35:00,57.1,56.8,30.07,NNW,330,0.0,1.2,99,0.00,CLR,BKN,0.00,WeatherDisplay:10.37,2013-09-08 13:35:00,
2013-09-08 06:37:00,57.1,56.8,30.06,NE,48,0.4,3.5,99,0.00,CLR,BKN,0.00,WeatherDisplay:10.37,2013-09-08 13:37:00,
2013-09-08 06:38:00,57.1,56.8,30.06,NE,48,0.1,1.2,99,0.00,CLR,BKN,0.00,WeatherDisplay:10.37,2013-09-08 13:38:00,
2013-09-08 06:41:00,57.1,56.8,30.07,NE,48,0.0,0.0,99,0.00,CLR,BKN,0.00,WeatherDisplay:10.37,2013-09-08 13:41:00,
2013-09-08 06:42:00,57.1,56.8,30.07,NE,49,0.0,0.0,99,0.00,CLR,BKN,0.00,WeatherDisplay:10.37,2013-09-08 13:42:00,
2013-09-08 06:43:00,57.1,56.8,30.07,NE,49,0.0,0.0,99,0.00,CLR,BKN,0.00,WeatherDisplay:10.37,2013-09-08 13:43:00,
2013-09-08 06:44:00,57.1,56.8,30.07,NE,48,0.0,1.2,99,0.00,CLR,BKN,0.00,WeatherDisplay:10.37,2013-09-08 13:44:00,
2013-09-08 06:46:00,57.1,56.8,30.07,NE,48,0.0,0.0,99,0.00,CLR,BKN,0.00,WeatherDisplay:10.37,2013-09-08 13:46:00,
2013-09-08 06:47:00,57.0,56.7,30.07,NE,48,0.6,2.3,99,0.00,CLR,BKN,0.00,WeatherDisplay:10.37,2013-09-08 13:47:00,
2013-09-08 06:48:00,57.1,56.8,30.07,NE,48,0.6,2.3,99,0.00,CLR,BKN,0.00,WeatherDisplay:10.37,2013-09-08 13:48:00,
2013-09-08 06:49:00,57.1,56.8,30.07,NE,48,0.0,0.0,99,0.00,CLR,BKN,0.00,WeatherDisplay:10.37,2013-09-08 13:49:00,
2013-09-08 06:50:00,57.1,56.8,30.07,NW,319,0.3,2.3,99,0.00,CLR,BKN,0.00,WeatherDisplay:10.37,2013-09-08 13:50:00,
2013-09-08 06:53:00,57.1,56.8,30.07,NW,319,0.0,1.2,99,0.00,CLR,BKN,0.00,WeatherDisplay:10.37,2013-09-08 13:53:00,
2013-09-08 06:54:00,57.1,56.8,30.07,NW,319,0.1,1.2,99,0.00,CLR,BKN,0.00,WeatherDisplay:10.37,2013-09-08 13:54:00,
2013-09-08 06:55:00,57.1,56.8,30.07,NW,319,0.0,2.3,99,0.00,CLR,BKN,0.00,WeatherDisplay:10.37,2013-09-08 13:55:00,
2013-09-08 06:56:00,57.1,56.8,30.07,NW,319,0.0,1.2,99,0.00,CLR,BKN,0.00,WeatherDisplay:10.37,2013-09-08 13:56:00,
2013-09-08 06:58:00,57.1,56.8,30.07,NW,319,0.1,1.0,99,0.00,CLR,BKN,0.00,WeatherDisplay:10.37,2013-09-08 13:58:00,
2013-09-08 06:59:00,57.1,56.8,30.07,NW,319,0.3,1.2,99,0.00,CLR,BKN,0.00,WeatherDisplay:10.37,2013-09-08 13:59:00,
2013-09-08 07:00:00,57.1,56.8,30.07,NW,319,0.0,0.0,99,0.00,CLR,BKN,0.00,WeatherDisplay:10.37,2013-09-08 14:00:00,
2013-09-08 07:01:00,57.1,56.8,30.07,NW,319,0.0,1.0,99,0.00,CLR,BKN,0.00,WeatherDisplay:10.37,2013-09-08 14:01:00,
2013-09-08 07:03:00,57.1,56.8,30.08,NW,323,0.6,3.5,99,0.00,CLR,BKN,0.00,WeatherDisplay:10.37,2013-09-08 14:03:00,
2013-09-08 07:04:00,57.1,56.8,30.08,NW,323,0.0,2.3,99,0.00,CLR,BKN,0.00,WeatherDisplay:10.37,2013-09-08 14:04:00,
2013-09-08 07:06:00,57.1,56.8,30.08,NNE,14,0.6,3.5,99,0.00,CLR,BKN,0.00,WeatherDisplay:10.37,2013-09-08 14:06:00,
2013-09-08 07:07:00,57.1,56.8,30.08,NNE,14,0.0,0.0,99,0.00,CLR,BKN,0.00,WeatherDisplay:10.37,2013-09-08 14:07:00,
2013-09-08 07:08:00,57.1,56.8,30.08,NNE,14,0.0,0.0,99,0.00,CLR,BKN,0.00,WeatherDisplay:10.37,2013-09-08 14:08:00,
2013-09-08 07:09:00,57.1,56.8,30.08,NNE,14,0.0,0.0,99,0.00,CLR,BKN,0.00,WeatherDisplay:10.37,2013-09-08 14:09:00,
2013-09-08 07:12:00,57.1,56.8,30.08,NNE,14,0.0,0.0,99,0.00,CLR,BKN,0.00,WeatherDisplay:10.37,2013-09-08 14:12:00,
2013-09-08 07:13:00,57.1,56.8,30.08,NNE,14,0.0,0.0,99,0.00,CLR,BKN,0.00,WeatherDisplay:10.37,2013-09-08 14:13:00,
2013-09-08 07:14:00,57.1,56.8,30.08,NNE,14,0.0,0.0,99,0.00,CLR,BKN,0.00,WeatherDisplay:10.37,2013-09-08 14:14:00,
2013-09-08 07:17:00,57.1,57.1,30.08,NNE,13,0.0,2.3,100,0.00,CLR,BKN,0.00,WeatherDisplay:10.37,2013-09-08 14:17:00,
2013-09-08 07:18:00,57.2,57.2,30.08,NNE,13,0.0,0.0,100,0.00,CLR,BKN,0.00,WeatherDisplay:10.37,2013-09-08 14:18:00,
2013-09-08 07:20:00,57.1,57.1,30.08,NNW,337,0.1,1.2,100,0.00,CLR,BKN,0.00,WeatherDisplay:10.37,2013-09-08 14:20:00,
2013-09-08 07:23:00,57.2,57.2,30.08,NNW,337,0.0,0.0,100,0.00,CLR,BKN,0.00,WeatherDisplay:10.37,2013-09-08 14:23:00,
2013-09-08 07:24:00,57.2,57.2,30.08,NNW,337,0.0,0.0,100,0.00,CLR,BKN,0.00,WeatherDisplay:10.37,2013-09-08 14:24:00,
2013-09-08 07:25:00,57.2,56.9,30.08,NNW,337,0.2,0.0,99,0.00,CLR,BKN,0.00,WeatherDisplay:10.37,2013-09-08 14:25:00,
2013-09-08 07:29:00,57.2,57.2,30.08,NNW,337,0.1,0.0,100,0.00,CLR,BKN,0.00,WeatherDisplay:10.37,2013-09-08 14:29:00,
2013-09-08 07:30:00,57.2,57.2,30.08,NW,319,1.3,2.3,100,0.00,CLR,BKN,0.00,WeatherDisplay:10.37,2013-09-08 14:30:00,
2013-09-08 07:34:00,57.3,57.3,30.08,East,87,0.0,0.0,100,0.00,CLR,BKN,0.00,WeatherDisplay:10.37,2013-09-08 14:34:00,
2013-09-08 07:35:00,57.2,57.2,30.08,East,87,0.0,1.2,100,0.00,CLR,BKN,0.00,WeatherDisplay:10.37,2013-09-08 14:35:00,
2013-09-08 07:36:00,57.2,57.2,30.08,East,84,0.4,4.0,100,0.00,CLR,BKN,0.00,WeatherDisplay:10.37,2013-09-08 14:36:00,
2013-09-08 07:37:00,57.2,57.2,30.08,East,84,0.7,3.5,100,0.00,CLR,BKN,0.00,WeatherDisplay:10.37,2013-09-08 14:37:00,
2013-09-08 07:39:00,57.2,57.2,30.08,ENE,71,0.0,3.5,100,0.00,CLR,BKN,0.00,WeatherDisplay:10.37,2013-09-08 14:39:00,
2013-09-08 07:41:00,57.2,57.2,30.08,ENE,57,0.1,1.2,100,0.00,CLR,BKN,0.00,WeatherDisplay:10.37,2013-09-08 14:41:00,
2013-09-08 07:42:00,57.2,57.2,30.08,ENE,57,0.1,1.2,100,0.00,CLR,BKN,0.00,WeatherDisplay:10.37,2013-09-08 14:42:00,
2013-09-08 07:44:00,57.2,57.2,30.08,WNW,290,0.3,1.2,100,0.00,CLR,BKN,0.00,WeatherDisplay:10.37,2013-09-08 14:44:00,
2013-09-08 07:47:00,57.2,57.2,30.08,WNW,297,0.1,1.2,100,0.00,CLR,BKN,0.00,WeatherDisplay:10.37,2013-09-08 14:47:00,
2013-09-08 07:48:00,57.2,57.2,30.08,NE,55,0.4,2.3,100,0.00,CLR,BKN,0.00,WeatherDisplay:10.37,2013-09-08 14:48:00,
2013-09-08 07:49:00,57.2,57.2,30.08,NW,313,0.1,1.2,100,0.00,CLR,BKN,0.00,WeatherDisplay:10.37,2013-09-08 14:49:00,
2013-09-08 07:52:00,57.3,57.3,30.08,NNW,338,0.6,2.3,100,0.00,CLR,BKN,0.00,WeatherDisplay:10.37,2013-09-08 14:52:00,
2013-09-08 07:54:00,57.3,57.3,30.08,NNW,332,0.0,1.2,100,0.00,CLR,BKN,0.00,WeatherDisplay:10.37,2013-09-08 14:54:00,
2013-09-08 07:57:00,57.3,57.3,30.08,NNW,332,0.0,1.2,100,0.00,CLR,BKN,0.00,WeatherDisplay:10.37,2013-09-08 14:57:00,
2013-09-08 07:58:00,57.3,57.3,30.08,NNW,332,0.0,1.2,100,0.00,CLR,BKN,0.00,WeatherDisplay:10.37,2013-09-08 14:58:00,
2013-09-08 07:59:00,57.3,57.0,30.08,NNW,332,0.0,1.0,99,0.00,CLR,BKN,0.00,WeatherDisplay:10.37,2013-09-08 14:59:00,
2013-09-08 08:00:00,57.3,57.3,30.08,NNW,332,0.0,2.3,100,0.00,CLR,BKN,0.00,WeatherDisplay:10.37,2013-09-08 15:00:00,
2013-09-08 08:03:00,57.4,57.4,30.08,North,350,0.2,2.0,100,0.00,CLR,BKN,0.00,WeatherDisplay:10.37,2013-09-08 15:03:00,
2013-09-08 08:04:00,57.4,57.4,30.09,North,350,0.1,1.2,100,0.00,CLR,BKN,0.00,WeatherDisplay:10.37,2013-09-08 15:04:00,
2013-09-08 08:05:00,57.4,57.4,30.09,North,350,0.0,0.0,100,0.00,CLR,BKN,0.00,WeatherDisplay:10.37,2013-09-08 15:05:00,
2013-09-08 08:06:00,57.5,57.5,30.09,North,350,0.1,1.2,100,0.00,CLR,BKN,0.00,WeatherDisplay:10.37,2013-09-08 15:06:00,
2013-09-08 08:08:00,57.5,57.5,30.09,North,351,0.0,0.0,100,0.00,CLR,BKN,0.00,WeatherDisplay:10.37,2013-09-08 15:08:00,
2013-09-08 08:09:00,57.5,57.5,30.09,North,351,0.2,1.2,100,0.00,CLR,BKN,0.00,WeatherDisplay:10.37,2013-09-08 15:09:00,
2013-09-08 08:12:00,57.6,57.6,30.09,NE,42,1.6,4.6,100,0.00,CLR,BKN,0.00,WeatherDisplay:10.37,2013-09-08 15:12:00,
2013-09-08 08:13:00,57.6,57.6,30.09,NE,42,0.0,3.5,100,0.00,CLR,BKN,0.00,WeatherDisplay:10.37,2013-09-08 15:13:00,
2013-09-08 08:14:00,57.6,57.6,30.09,NE,42,0.0,0.0,100,0.00,CLR,BKN,0.00,WeatherDisplay:10.37,2013-09-08 15:14:00,
2013-09-08 08:15:00,57.6,57.6,30.09,NE,42,0.0,0.0,100,0.00,CLR,BKN,0.00,WeatherDisplay:10.37,2013-09-08 15:15:00,
2013-09-08 08:18:00,57.7,57.7,30.09,NNE,21,0.0,1.2,100,0.00,CLR,BKN,0.00,WeatherDisplay:10.37,2013-09-08 15:18:00,
2013-09-08 08:20:00,57.7,57.7,30.09,NNE,22,0.0,1.2,100,0.00,CLR,BKN,0.00,WeatherDisplay:10.37,2013-09-08 15:20:00,
2013-09-08 08:23:00,57.8,57.8,30.09,North,355,1.7,1.7,100,0.00,CLR,BKN,0.00,WeatherDisplay:10.37,2013-09-08 15:23:00,
2013-09-08 08:25:00,57.7,57.7,30.09,NE,36,1.7,3.5,100,0.00,CLR,BKN,0.00,WeatherDisplay:10.37,2013-09-08 15:25:00,
2013-09-08 08:28:00,57.8,57.8,30.09,NE,51,0.6,4.6,100,0.00,CLR,BKN,0.00,WeatherDisplay:10.37,2013-09-08 15:28:00,
2013-09-08 08:29:00,57.8,57.8,30.09,NE,51,0.4,3.5,100,0.00,CLR,BKN,0.00,WeatherDisplay:10.37,2013-09-08 15:29:00,
2013-09-08 08:30:00,57.8,57.8,30.09,North,5,0.0,3.5,100,0.00,CLR,BKN,0.00,WeatherDisplay:10.37,2013-09-08 15:30:00,
2013-09-08 08:33:00,57.9,57.9,30.09,West,277,0.0,1.2,100,0.00,CLR,BKN,0.00,WeatherDisplay:10.37,2013-09-08 15:33:00,
2013-09-08 08:35:00,57.9,57.9,30.09,NE,35,1.0,3.5,100,0.00,CLR,BKN,0.00,WeatherDisplay:10.37,2013-09-08 15:35:00,
2013-09-08 08:39:00,57.8,57.8,30.09,North,350,0.0,4.6,100,0.00,CLR,BKN,0.00,WeatherDisplay:10.37,2013-09-08 15:39:00,
2013-09-08 08:40:00,57.8,57.8,30.09,North,1,0.0,5.0,100,0.00,CLR,BKN,0.00,WeatherDisplay:10.37,2013-09-08 15:40:00,
2013-09-08 08:41:00,57.8,57.8,30.09,North,350,0.0,0.0,100,0.00,CLR,BKN,0.00,WeatherDisplay:10.37,2013-09-08 15:41:00,
2013-09-08 08:43:00,57.8,57.8,30.09,NNW,327,0.4,2.3,100,0.00,CLR,BKN,0.00,WeatherDisplay:10.37,2013-09-08 15:43:00,
2013-09-08 08:44:00,57.9,57.9,30.09,NW,311,0.0,0.0,100,0.00,CLR,BKN,0.00,WeatherDisplay:10.37,2013-09-08 15:44:00,
2013-09-08 08:45:00,57.8,57.8,30.09,NW,311,0.1,1.2,100,0.00,CLR,BKN,0.00,WeatherDisplay:10.37,2013-09-08 15:45:00,
2013-09-08 08:46:00,57.9,57.9,30.09,NNW,332,0.0,0.0,100,0.00,CLR,BKN,0.00,WeatherDisplay:10.37,2013-09-08 15:46:00,
2013-09-08 08:47:00,57.9,57.9,30.09,NNW,332,0.0,0.0,100,0.00,CLR,BKN,0.00,WeatherDisplay:10.37,2013-09-08 15:47:00,
2013-09-08 08:48:00,57.9,57.9,30.09,NNW,332,0.0,0.0,100,0.00,CLR,BKN,0.00,WeatherDisplay:10.37,2013-09-08 15:48:00,
2013-09-08 08:50:00,58.0,58.0,30.09,NNW,332,0.1,1.2,100,0.00,CLR,BKN,0.00,WeatherDisplay:10.37,2013-09-08 15:50:00,
2013-09-08 08:51:00,58.0,58.0,30.09,NNW,343,0.1,1.2,100,0.00,CLR,BKN,0.00,WeatherDisplay:10.37,2013-09-08 15:51:00,
2013-09-08 08:52:00,57.9,57.9,30.09,NNE,24,1.7,3.5,100,0.00,CLR,BKN,0.00,WeatherDisplay:10.37,2013-09-08 15:52:00,
2013-09-08 08:54:00,57.9,57.9,30.09,NNE,30,0.0,3.5,100,0.00,CLR,BKN,0.00,WeatherDisplay:10.37,2013-09-08 15:54:00,
2013-09-08 08:55:00,57.9,57.9,30.09,NNW,327,0.3,2.3,100,0.00,CLR,BKN,0.00,WeatherDisplay:10.37,2013-09-08 15:55:00,
2013-09-08 08:56:00,58.0,58.0,30.09,NNW,327,0.0,2.3,100,0.00,CLR,BKN,0.00,WeatherDisplay:10.37,2013-09-08 15:56:00,
2013-09-08 08:57:00,58.0,58.0,30.09,NNW,327,0.1,1.2,100,0.00,CLR,BKN,0.00,WeatherDisplay:10.37,2013-09-08 15:57:00,
2013-09-08 08:59:00,58.0,58.0,30.09,NNW,336,0.0,1.2,100,0.00,CLR,BKN,0.00,WeatherDisplay:10.37,2013-09-08 15:59:00,
2013-09-08 09:00:00,58.0,58.0,30.09,North,351,0.4,2.3,100,0.00,CLR,BKN,0.00,WeatherDisplay:10.37,2013-09-08 16:00:00,
2013-09-08 09:01:00,58.0,58.0,30.09,North,351,0.2,2.3,100,0.00,CLR,BKN,0.00,WeatherDisplay:10.37,2013-09-08 16:01:00,
2013-09-08 09:02:00,58.0,58.0,30.09,North,351,0.0,1.2,100,0.00,CLR,BKN,0.00,WeatherDisplay:10.37,2013-09-08 16:02:00,
2013-09-08 09:03:00,58.0,58.0,30.09,NNW,344,0.2,3.0,100,0.00,CLR,BKN,0.00,WeatherDisplay:10.37,2013-09-08 16:03:00,
2013-09-08 09:04:00,58.1,58.1,30.09,NNW,338,0.6,3.5,100,0.00,CLR,BKN,0.00,WeatherDisplay:10.37,2013-09-08 16:04:00,
2013-09-08 09:06:00,58.1,58.1,30.09,ENE,73,0.0,1.2,100,0.00,CLR,BKN,0.00,WeatherDisplay:10.37,2013-09-08 16:06:00,
2013-09-08 09:07:00,58.1,58.1,30.09,ENE,73,0.0,1.2,100,0.00,CLR,BKN,0.00,WeatherDisplay:10.37,2013-09-08 16:07:00,
2013-09-08 09:08:00,58.1,58.1,30.09,ENE,71,0.1,3.5,100,0.00,CLR,BKN,0.00,WeatherDisplay:10.37,2013-09-08 16:08:00,
2013-09-08 09:09:00,58.1,58.1,30.09,NNE,26,1.1,4.6,100,0.00,CLR,BKN,0.00,WeatherDisplay:10.37,2013-09-08 16:09:00,
2013-09-08 09:10:00,58.1,58.1,30.09,NNE,32,1.0,5.0,100,0.00,CLR,BKN,0.00,WeatherDisplay:10.37,2013-09-08 16:10:00,
2013-09-08 09:11:00,58.2,58.2,30.09,NNE,30,0.1,3.5,100,0.00,CLR,BKN,0.00,WeatherDisplay:10.37,2013-09-08 16:11:00,
2013-09-08 09:12:00,58.2,58.2,30.09,WSW,240,0.0,1.2,100,0.00,CLR,BKN,0.00,WeatherDisplay:10.37,2013-09-08 16:12:00,
2013-09-08 09:15:00,58.3,58.3,30.09,ENE,61,1.0,3.5,100,0.00,CLR,BKN,0.00,WeatherDisplay:10.37,2013-09-08 16:15:00,
2013-09-08 09:16:00,58.3,58.3,30.09,WNW,302,0.9,3.5,100,0.00,CLR,BKN,0.00,WeatherDisplay:10.37,2013-09-08 16:16:00,
2013-09-08 09:17:00,58.3,58.3,30.09,NW,321,0.2,3.5,100,0.00,CLR,BKN,0.00,WeatherDisplay:10.37,2013-09-08 16:17:00,
2013-09-08 09:20:00,58.3,58.3,30.10,NE,53,0.3,2.3,100,0.00,CLR,BKN,0.00,WeatherDisplay:10.37,2013-09-08 16:20:00,
2013-09-08 09:22:00,58.4,58.4,30.10,North,360,0.0,1.0,100,0.00,CLR,BKN,0.00,WeatherDisplay:10.37,2013-09-08 16:22:00,
2013-09-08 09:25:00,58.4,58.4,30.10,NNW,348,0.6,4.0,100,0.00,CLR,BKN,0.00,WeatherDisplay:10.37,2013-09-08 16:25:00,
2013-09-08 09:27:00,58.4,58.4,30.10,North,5,1.6,3.5,100,0.00,CLR,BKN,0.00,WeatherDisplay:10.37,2013-09-08 16:27:00,
2013-09-08 09:28:00,58.5,58.5,30.10,NW,306,1.2,4.6,100,0.00,CLR,BKN,0.00,WeatherDisplay:10.37,2013-09-08 16:28:00,
2013-09-08 09:30:00,58.5,58.5,30.10,NNW,329,0.0,5.0,100,0.00,CLR,BKN,0.00,WeatherDisplay:10.37,2013-09-08 16:30:00,
2013-09-08 09:31:00,58.5,58.5,30.10,NNE,22,0.9,3.5,100,0.00,CLR,BKN,0.00,WeatherDisplay:10.37,2013-09-08 16:31:00,
2013-09-08 09:32:00,58.5,58.5,30.10,NNE,21,0.1,3.5,100,0.00,CLR,BKN,0.00,WeatherDisplay:10.37,2013-09-08 16:32:00,
2013-09-08 09:33:00,58.5,58.5,30.10,NNE,21,0.1,1.2,100,0.00,CLR,BKN,0.00,WeatherDisplay:10.37,2013-09-08 16:33:00,
2013-09-08 09:35:00,58.6,58.6,30.10,North,11,0.3,8.1,100,0.00,CLR,BKN,0.00,WeatherDisplay:10.37,2013-09-08 16:35:00,
2013-09-08 09:37:00,58.6,58.6,30.10,NNW,340,1.0,1.2,100,0.00,CLR,BKN,0.00,WeatherDisplay:10.37,2013-09-08 16:37:00,
2013-09-08 09:38:00,58.6,58.6,30.10,NE,37,2.0,3.5,100,0.00,CLR,BKN,0.00,WeatherDisplay:10.37,2013-09-08 16:38:00,
2013-09-08 09:41:00,58.7,58.7,30.10,WNW,303,0.7,3.5,100,0.00,CLR,BKN,0.00,WeatherDisplay:10.37,2013-09-08 16:41:00,
2013-09-08 09:42:00,58.7,58.4,30.09,North,355,0.5,3.5,99,0.00,CLR,BKN,0.00,WeatherDisplay:10.37,2013-09-08 16:42:00,
2013-09-08 09:43:00,58.7,58.4,30.09,North,355,0.5,3.5,99,0.00,CLR,BKN,0.00,WeatherDisplay:10.37,2013-09-08 16:43:00,
2013-09-08 09:45:00,58.7,58.4,30.09,NE,40,1.6,1.6,99,0.00,CLR,BKN,0.00,WeatherDisplay:10.37,2013-09-08 16:45:00,
2013-09-08 09:47:00,58.7,58.4,30.09,NNE,25,2.2,4.6,99,0.00,CLR,BKN,0.00,WeatherDisplay:10.37,2013-09-08 16:47:00,
2013-09-08 09:48:00,58.7,58.7,30.10,NNE,25,0.0,1.2,100,0.00,CLR,BKN,0.00,WeatherDisplay:10.37,2013-09-08 16:48:00,
2013-09-08 09:49:00,58.8,58.8,30.10,NNW,348,0.0,1.2,100,0.00,CLR,BKN,0.00,WeatherDisplay:10.37,2013-09-08 16:49:00,
2013-09-08 09:51:00,58.8,58.8,30.09,NNE,26,0.7,6.0,100,0.00,CLR,BKN,0.00,WeatherDisplay:10.37,2013-09-08 16:51:00,
2013-09-08 09:52:00,58.8,58.8,30.09,NE,52,2.4,8.1,100,0.00,CLR,BKN,0.00,WeatherDisplay:10.37,2013-09-08 16:52:00,
2013-09-08 09:53:00,58.8,58.8,30.09,NE,52,2.2,8.1,100,0.00,CLR,BKN,0.00,WeatherDisplay:10.37,2013-09-08 16:53:00,
2013-09-08 09:54:00,58.8,58.5,30.09,NE,51,0.0,5.8,99,0.00,CLR,BKN,0.00,WeatherDisplay:10.37,2013-09-08 16:54:00,
2013-09-08 09:55:00,58.9,58.6,30.09,NNE,24,1.5,4.6,99,0.00,CLR,BKN,0.00,WeatherDisplay:10.37,2013-09-08 16:55:00,
2013-09-08 09:57:00,58.9,58.6,30.10,NW,309,0.7,4.6,99,0.00,CLR,BKN,0.00,WeatherDisplay:10.37,2013-09-08 16:57:00,
2013-09-08 09:58:00,58.9,58.6,30.09,ENE,74,0.2,2.3,99,0.00,CLR,BKN,0.00,WeatherDisplay:10.37,2013-09-08 16:58:00,
2013-09-08 09:59:00,58.9,58.6,30.10,ENE,74,0.0,0.0,99,0.00,CLR,BKN,0.00,WeatherDisplay:10.37,2013-09-08 16:59:00,
2013-09-08 10:02:00,59.0,58.7,30.10,North,10,0.0,1.2,99,0.00,CLR,BKN,0.00,WeatherDisplay:10.37,2013-09-08 17:02:00,
2013-09-08 10:03:00,59.0,58.7,30.10,NNE,12,0.9,3.5,99,0.00,CLR,BKN,0.00,WeatherDisplay:10.37,2013-09-08 17:03:00,
2013-09-08 10:04:00,59.0,58.7,30.10,NNE,12,0.0,1.2,99,0.00,CLR,BKN,0.00,WeatherDisplay:10.37,2013-09-08 17:04:00,
2013-09-08 10:05:00,59.1,58.8,30.10,NNE,19,0.4,1.2,99,0.00,CLR,BKN,0.00,WeatherDisplay:10.37,2013-09-08 17:05:00,
2013-09-08 10:07:00,59.1,58.8,30.10,NE,37,2.7,3.5,99,0.00,CLR,BKN,0.00,WeatherDisplay:10.37,2013-09-08 17:07:00,
2013-09-08 10:08:00,59.2,58.9,30.10,NNE,29,0.5,4.6,99,0.00,CLR,BKN,0.00,WeatherDisplay:10.37,2013-09-08 17:08:00,
2013-09-08 10:09:00,59.2,58.9,30.10,North,355,0.1,1.2,99,0.00,CLR,BKN,0.00,WeatherDisplay:10.37,2013-09-08 17:09:00,
2013-09-08 10:10:00,59.2,58.9,30.10,North,355,0.0,1.2,99,0.00,CLR,BKN,0.00,WeatherDisplay:10.37,2013-09-08 17:10:00,
2013-09-08 10:12:00,59.4,59.1,30.10,North,350,0.8,4.0,99,0.00,CLR,BKN,0.00,WeatherDisplay:10.37,2013-09-08 17:12:00,
2013-09-08 10:13:00,59.4,59.1,30.10,ENE,62,1.2,4.6,99,0.00,CLR,BKN,0.00,WeatherDisplay:10.37,2013-09-08 17:13:00,
2013-09-08 10:14:00,59.4,59.1,30.10,ENE,63,0.0,1.2,99,0.00,CLR,BKN,0.00,WeatherDisplay:10.37,2013-09-08 17:14:00,
2013-09-08 10:15:00,59.5,59.2,30.10,NNE,15,0.0,1.2,99,0.00,CLR,BKN,0.00,WeatherDisplay:10.37,2013-09-08 17:15:00,
2013-09-08 10:18:00,59.5,59.2,30.10,North,11,0.0,1.2,99,0.00,CLR,BKN,0.00,WeatherDisplay:10.37,2013-09-08 17:18:00,
2013-09-08 10:19:00,59.5,59.2,30.10,NNE,16,0.3,1.2,99,0.00,CLR,BKN,0.00,WeatherDisplay:10.37,2013-09-08 17:19:00,
2013-09-08 10:20:00,59.6,59.3,30.10,West,276,0.1,1.2,99,0.00,CLR,BKN,0.00,WeatherDisplay:10.37,2013-09-08 17:20:00,
2013-09-08 10:21:00,59.6,59.3,30.10,North,355,0.0,1.2,99,0.00,CLR,BKN,0.00,WeatherDisplay:10.37,2013-09-08 17:21:00,
2013-09-08 10:22:00,59.6,59.3,30.10,North,355,0.0,0.0,99,0.00,CLR,BKN,0.00,WeatherDisplay:10.37,2013-09-08 17:22:00,
2013-09-08 10:23:00,59.7,59.4,30.10,ENE,68,0.1,1.2,99,0.00,CLR,BKN,0.00,WeatherDisplay:10.37,2013-09-08 17:23:00,
2013-09-08 10:24:00,59.7,59.4,30.10,ENE,66,0.5,1.2,99,0.00,CLR,BKN,0.00,WeatherDisplay:10.37,2013-09-08 17:24:00,
2013-09-08 10:25:00,59.8,59.5,30.10,NE,52,0.7,3.5,99,0.00,CLR,BKN,0.00,WeatherDisplay:10.37,2013-09-08 17:25:00,
2013-09-08 10:26:00,59.8,59.5,30.10,North,360,0.2,3.5,99,0.00,CLR,BKN,0.00,WeatherDisplay:10.37,2013-09-08 17:26:00,
2013-09-08 10:27:00,59.9,59.6,30.10,North,350,0.0,4.6,99,0.00,CLR,BKN,0.00,WeatherDisplay:10.37,2013-09-08 17:27:00,
2013-09-08 10:28:00,59.9,59.6,30.10,NNW,329,0.7,3.0,99,0.00,CLR,BKN,0.00,WeatherDisplay:10.37,2013-09-08 17:28:00,
2013-09-08 10:29:00,59.9,59.6,30.10,NNW,338,0.9,1.0,99,0.00,CLR,BKN,0.00,WeatherDisplay:10.37,2013-09-08 17:29:00,
2013-09-08 10:30:00,60.0,59.7,30.10,NNW,327,0.9,3.5,99,0.00,CLR,BKN,0.00,WeatherDisplay:10.37,2013-09-08 17:30:00,
2013-09-08 10:31:00,60.1,59.8,30.10,NNW,327,0.2,2.3,99,0.00,CLR,BKN,0.00,WeatherDisplay:10.37,2013-09-08 17:31:00,
2013-09-08 10:32:00,60.2,59.6,30.10,West,273,0.3,4.6,98,0.00,CLR,BKN,0.00,WeatherDisplay:10.37,2013-09-08 17:32:00,
2013-09-08 10:34:00,60.2,59.6,30.10,North,5,0.5,2.3,98,0.00,CLR,BKN,0.00,WeatherDisplay:10.37,2013-09-08 17:34:00,
2013-09-08 10:36:00,60.4,59.8,30.10,NE,46,2.2,4.6,98,0.00,CLR,BKN,0.00,WeatherDisplay:10.37,2013-09-08 17:36:00,
2013-09-08 10:39:00,60.5,59.9,30.10,NE,50,0.0,0.0,98,0.00,CLR,BKN,0.00,WeatherDisplay:10.37,2013-09-08 17:39:00,
2013-09-08 10:40:00,60.6,60.0,30.10,NE,53,0.0,1.2,98,0.00,CLR,BKN,0.00,WeatherDisplay:10.37,2013-09-08 17:40:00,
2013-09-08 10:42:00,60.7,60.1,30.10,WNW,286,0.1,1.2,98,0.00,CLR,BKN,0.00,WeatherDisplay:10.37,2013-09-08 17:42:00,
2013-09-08 10:44:00,60.8,59.9,30.10,North,355,0.1,1.2,97,0.00,CLR,BKN,0.00,WeatherDisplay:10.37,2013-09-08 17:44:00,
2013-09-08 10:45:00,60.9,60.0,30.10,NE,40,0.0,1.0,97,0.00,CLR,BKN,0.00,WeatherDisplay:10.37,2013-09-08 17:45:00,
2013-09-08 10:47:00,61.0,60.1,30.10,NE,38,0.9,2.3,97,0.00,CLR,BKN,0.00,WeatherDisplay:10.37,2013-09-08 17:47:00,
2013-09-08 10:49:00,61.1,60.0,30.10,WSW,242,0.2,3.5,96,0.00,CLR,BKN,0.00,WeatherDisplay:10.37,2013-09-08 17:49:00,
2013-09-08 10:51:00,61.2,60.1,30.10,West,271,0.5,2.3,96,0.00,CLR,BKN,0.00,WeatherDisplay:10.37,2013-09-08 17:51:00,
2013-09-08 10:53:00,61.3,60.2,30.10,NE,55,1.1,0.0,96,0.00,CLR,BKN,0.00,WeatherDisplay:10.37,2013-09-08 17:53:00,
2013-09-08 10:54:00,61.3,60.2,30.10,NNW,341,0.6,3.0,96,0.00,CLR,BKN,0.00,WeatherDisplay:10.37,2013-09-08 17:54:00,
2013-09-08 10:57:00,61.4,60.2,30.10,NNE,15,0.0,0.0,96,0.00,CLR,BKN,0.00,WeatherDisplay:10.37,2013-09-08 17:57:00,
2013-09-08 10:58:00,61.6,60.4,30.10,NNE,15,0.0,1.2,96,0.00,CLR,BKN,0.00,WeatherDisplay:10.37,2013-09-08 17:58:00,
2013-09-08 10:59:00,61.7,60.5,30.10,NNE,28,0.1,1.2,96,0.00,CLR,BKN,0.00,WeatherDisplay:10.37,2013-09-08 17:59:00,
2013-09-08 11:03:00,61.9,60.5,30.10,North,9,0.1,3.5,95,0.00,CLR,BKN,0.00,WeatherDisplay:10.37,2013-09-08 18:03:00,
2013-09-08 11:04:00,61.9,60.5,30.10,NE,53,0.1,1.2,95,0.00,CLR,BKN,0.00,WeatherDisplay:10.37,2013-09-08 18:04:00,
2013-09-08 11:05:00,61.9,60.5,30.10,NE,53,0.2,1.2,95,0.00,CLR,BKN,0.00,WeatherDisplay:10.37,2013-09-08 18:05:00,
2013-09-08 11:08:00,62.1,60.7,30.10,NE,42,0.0,0.0,95,0.00,CLR,BKN,0.00,WeatherDisplay:10.37,2013-09-08 18:08:00,
2013-09-08 11:09:00,62.1,60.7,30.10,NE,42,0.0,0.0,95,0.00,CLR,BKN,0.00,WeatherDisplay:10.37,2013-09-08 18:09:00,
2013-09-08 11:10:00,62.2,60.8,30.10,NE,44,0.1,1.2,95,0.00,CLR,BKN,0.00,WeatherDisplay:10.37,2013-09-08 18:10:00,
2013-09-08 11:14:00,62.9,61.4,30.10,ENE,61,1.0,3.0,95,0.00,CLR,BKN,0.00,WeatherDisplay:10.37,2013-09-08 18:14:00,
2013-09-08 11:15:00,63.0,61.2,30.10,NNW,348,0.6,3.5,94,0.00,CLR,BKN,0.00,WeatherDisplay:10.37,2013-09-08 18:15:00,
2013-09-08 11:16:00,63.1,61.6,30.10,North,5,1.0,3.5,95,0.00,CLR,BKN,0.00,WeatherDisplay:10.37,2013-09-08 18:16:00,
2013-09-08 11:20:00,63.5,61.7,30.10,NE,53,0.0,1.0,94,0.00,CLR,BKN,0.00,WeatherDisplay:10.37,2013-09-08 18:20:00,
2013-09-08 11:21:00,63.7,61.9,30.10,ENE,58,0.3,1.2,94,0.00,CLR,BKN,0.00,WeatherDisplay:10.37,2013-09-08 18:21:00,
2013-09-08 11:25:00,64.3,61.9,30.10,North,5,0.9,4.6,92,0.00,CLR,BKN,0.00,WeatherDisplay:10.37,2013-09-08 18:25:00,
2013-09-08 11:26:00,64.4,62.0,30.10,North,11,2.2,3.5,92,0.00,CLR,BKN,0.00,WeatherDisplay:10.37,2013-09-08 18:26:00,
2013-09-08 11:30:00,64.7,62.3,30.10,NNE,30,0.2,0.0,92,0.00,CLR,BKN,0.00,WeatherDisplay:10.37,2013-09-08 18:30:00,
2013-09-08 11:31:00,64.8,62.1,30.10,NNE,30,0.0,2.3,91,0.00,CLR,BKN,0.00,WeatherDisplay:10.37,2013-09-08 18:31:00,
2013-09-08 11:32:00,64.9,62.2,30.10,NNE,30,0.2,2.3,91,0.00,CLR,BKN,0.00,WeatherDisplay:10.37,2013-09-08 18:32:00,
2013-09-08 11:35:00,65.2,62.2,30.10,NE,44,1.2,3.5,90,0.00,CLR,BKN,0.00,WeatherDisplay:10.37,2013-09-08 18:35:00,
2013-09-08 11:36:00,65.2,62.2,30.10,NE,44,0.6,3.5,90,0.00,CLR,BKN,0.00,WeatherDisplay:10.37,2013-09-08 18:36:00,
2013-09-08 11:37:00,65.3,62.3,30.10,NNW,331,0.6,2.3,90,0.00,CLR,BKN,0.00,WeatherDisplay:10.37,2013-09-08 18:37:00,
2013-09-08 11:40:00,65.6,62.3,30.10,NNE,28,0.0,1.0,89,0.00,CLR,BKN,0.00,WeatherDisplay:10.37,2013-09-08 18:40:00,
2013-09-08 11:41:00,65.6,62.3,30.10,NNE,32,0.3,1.0,89,0.00,CLR,BKN,0.00,WeatherDisplay:10.37,2013-09-08 18:41:00,
2013-09-08 11:42:00,65.7,62.4,30.10,West,268,0.3,1.2,89,0.00,CLR,BKN,0.00,WeatherDisplay:10.37,2013-09-08 18:42:00,
2013-09-08 11:46:00,65.9,62.6,30.11,NW,306,0.4,1.2,89,0.00,CLR,BKN,0.00,WeatherDisplay:10.37,2013-09-08 18:46:00,
2013-09-08 11:48:00,66.1,62.4,30.11,NNW,346,0.9,3.5,88,0.00,CLR,BKN,0.00,WeatherDisplay:10.37,2013-09-08 18:48:00,
2013-09-08 11:51:00,66.4,62.7,30.11,North,10,0.4,3.5,88,0.00,CLR,BKN,0.00,WeatherDisplay:10.37,2013-09-08 18:51:00,
2013-09-08 11:52:00,66.4,62.7,30.11,North,10,0.4,3.5,88,0.00,CLR,BKN,0.00,WeatherDisplay:10.37,2013-09-08 18:52:00,
2013-09-08 11:53:00,66.5,62.5,30.11,North,5,0.1,3.5,87,0.00,CLR,BKN,0.00,WeatherDisplay:10.37,2013-09-08 18:53:00,
2013-09-08 11:56:00,66.7,62.7,30.10,North,355,0.0,1.2,87,0.00,CLR,BKN,0.00,WeatherDisplay:10.37,2013-09-08 18:56:00,
2013-09-08 11:57:00,66.8,62.8,30.10,North,355,0.0,1.2,87,0.00,CLR,BKN,0.00,WeatherDisplay:10.37,2013-09-08 18:57:00,
2013-09-08 11:58:00,66.9,63.2,30.11,NNE,30,0.2,1.2,88,0.00,CLR,BKN,0.00,WeatherDisplay:10.37,2013-09-08 18:58:00,
2013-09-08 12:01:00,67.3,63.0,30.10,NE,36,1.7,3.5,86,0.00,CLR,BKN,0.00,WeatherDisplay:10.37,2013-09-08 19:01:00,
2013-09-08 12:02:00,67.3,63.0,30.10,NE,36,0.6,3.5,86,0.00,CLR,BKN,0.00,WeatherDisplay:10.37,2013-09-08 19:02:00,
2013-09-08 12:03:00,67.4,63.1,30.10,NNE,19,0.1,2.3,86,0.00,CLR,BKN,0.00,WeatherDisplay:10.37,2013-09-08 19:03:00,
2013-09-08 12:04:00,67.4,63.1,30.10,NNE,19,0.2,1.2,86,0.00,CLR,BKN,0.00,WeatherDisplay:10.37,2013-09-08 19:04:00,
2013-09-08 12:06:00,67.6,62.9,30.10,NE,56,2.3,4.6,85,0.00,CLR,BKN,0.00,WeatherDisplay:10.37,2013-09-08 19:06:00,
2013-09-08 12:07:00,67.7,63.4,30.10,NE,51,0.1,1.2,86,0.00,CLR,BKN,0.00,WeatherDisplay:10.37,2013-09-08 19:07:00,
2013-09-08 12:08:00,67.7,63.4,30.10,North,9,0.0,1.2,86,0.00,CLR,BKN,0.00,WeatherDisplay:10.37,2013-09-08 19:08:00,
2013-09-08 12:09:00,67.8,63.1,30.10,North,9,0.1,1.2,85,0.00,CLR,BKN,0.00,WeatherDisplay:10.37,2013-09-08 19:09:00,
2013-09-08 12:11:00,67.9,62.9,30.10,NE,36,0.7,4.6,84,0.00,CLR,BKN,0.00,WeatherDisplay:10.37,2013-09-08 19:11:00,
2013-09-08 12:12:00,68.0,63.0,30.10,North,360,2.3,4.6,84,0.00,CLR,BKN,0.00,WeatherDisplay:10.37,2013-09-08 19:12:00,
2013-09-08 12:13:00,68.0,63.0,30.10,North,355,1.0,4.6,84,0.00,CLR,BKN,0.00,WeatherDisplay:10.37,2013-09-08 19:13:00,
2013-09-08 12:15:00,68.1,63.1,30.10,NNW,331,2.0,4.6,84,0.00,CLR,BKN,0.00,WeatherDisplay:10.37,2013-09-08 19:15:00,
2013-09-08 12:16:00,68.2,63.2,30.10,NNW,331,0.7,4.6,84,0.00,CLR,BKN,0.00,WeatherDisplay:10.37,2013-09-08 19:16:00,
2013-09-08 12:17:00,68.3,63.3,30.10,North,355,0.2,1.2,84,0.00,CLR,BKN,0.00,WeatherDisplay:10.37,2013-09-08 19:17:00,
2013-09-08 12:18:00,68.3,63.3,30.10,North,355,0.0,1.2,84,0.00,CLR,BKN,0.00,WeatherDisplay:10.37,2013-09-08 19:18:00,
2013-09-08 12:21:00,68.7,63.7,30.10,NW,318,0.1,2.3,84,0.00,CLR,BKN,0.00,WeatherDisplay:10.37,2013-09-08 19:21:00,
2013-09-08 12:22:00,68.9,63.9,30.10,North,355,1.6,5.8,84,0.00,CLR,BKN,0.00,WeatherDisplay:10.37,2013-09-08 19:22:00,
2013-09-08 12:23:00,69.0,63.6,30.10,NNE,16,0.7,5.8,83,0.00,CLR,BKN,0.00,WeatherDisplay:10.37,2013-09-08 19:23:00,
2013-09-08 12:24:00,69.1,64.1,30.10,NNE,19,0.3,3.5,84,0.00,CLR,BKN,0.00,WeatherDisplay:10.37,2013-09-08 19:24:00,
2013-09-08 12:26:00,69.6,64.2,30.09,ENE,59,1.5,4.6,83,0.00,CLR,BKN,0.00,WeatherDisplay:10.37,2013-09-08 19:26:00,
2013-09-08 12:27:00,69.6,64.2,30.09,ENE,59,2.1,4.6,83,0.00,CLR,BKN,0.00,WeatherDisplay:10.37,2013-09-08 19:27:00,
2013-09-08 12:28:00,69.7,63.6,30.10,NE,41,1.4,3.5,81,0.00,CLR,BKN,0.00,WeatherDisplay:10.37,2013-09-08 19:28:00,
2013-09-08 12:29:00,69.7,63.6,30.10,NE,41,1.4,3.5,81,0.00,CLR,BKN,0.00,WeatherDisplay:10.37,2013-09-08 19:29:00,
2013-09-08 12:32:00,69.9,64.5,30.10,NNE,13,2.5,3.0,83,0.00,CLR,BKN,0.00,WeatherDisplay:10.37,2013-09-08 19:32:00,
2013-09-08 12:34:00,70.1,65.0,30.10,North,351,1.1,3.0,84,0.00,CLR,BKN,0.00,WeatherDisplay:10.37,2013-09-08 19:34:00,
2013-09-08 12:37:00,70.6,64.5,30.10,North,351,0.0,1.2,81,0.00,CLR,BKN,0.00,WeatherDisplay:10.37,2013-09-08 19:37:00,
2013-09-08 12:39:00,70.8,64.3,30.10,ENE,78,0.5,4.0,80,0.00,CLR,BKN,0.00,WeatherDisplay:10.37,2013-09-08 19:39:00,
2013-09-08 12:40:00,70.8,64.3,30.10,NW,312,0.7,3.5,80,0.00,CLR,BKN,0.00,WeatherDisplay:10.37,2013-09-08 19:40:00,
2013-09-08 12:43:00,71.0,64.5,30.10,NNW,336,0.5,2.0,80,0.00,CLR,BKN,0.00,WeatherDisplay:10.37,2013-09-08 19:43:00,
2013-09-08 12:44:00,71.2,64.7,30.10,North,355,1.3,5.0,80,0.00,CLR,BKN,0.00,WeatherDisplay:10.37,2013-09-08 19:44:00,
2013-09-08 12:45:00,71.3,64.8,30.10,North,9,1.5,3.5,80,0.00,CLR,BKN,0.00,WeatherDisplay:10.37,2013-09-08 19:45:00,
2013-09-08 12:46:00,71.4,64.9,30.10,NNE,15,0.8,4.6,80,0.00,CLR,BKN,0.00,WeatherDisplay:10.37,2013-09-08 19:46:00,
2013-09-08 12:48:00,71.7,64.5,30.10,NE,45,1.1,3.5,78,0.00,CLR,BKN,0.00,WeatherDisplay:10.37,2013-09-08 19:48:00,
2013-09-08 12:49:00,71.9,64.7,30.10,NNW,342,1.1,5.8,78,0.00,CLR,BKN,0.00,WeatherDisplay:10.37,2013-09-08 19:49:00,
2013-09-08 12:50:00,71.9,64.7,30.10,NNW,342,1.2,5.8,78,0.00,CLR,BKN,0.00,WeatherDisplay:10.37,2013-09-08 19:50:00,
2013-09-08 12:51:00,72.0,64.4,30.10,NNE,15,0.1,5.8,77,0.00,CLR,BKN,0.00,WeatherDisplay:10.37,2013-09-08 19:51:00,
2013-09-08 12:53:00,72.3,65.1,30.10,NW,319,0.5,5.8,78,0.00,CLR,BKN,0.00,WeatherDisplay:10.37,2013-09-08 19:53:00,
2013-09-08 12:54:00,72.5,64.9,30.10,North,9,1.5,3.5,77,0.00,CLR,BKN,0.00,WeatherDisplay:10.37,2013-09-08 19:54:00,
2013-09-08 12:55:00,72.5,64.9,30.10,North,355,1.9,3.5,77,0.00,CLR,BKN,0.00,WeatherDisplay:10.37,2013-09-08 19:55:00,
2013-09-08 12:56:00,72.7,65.1,30.09,NE,36,0.5,3.5,77,0.00,CLR,BKN,0.00,WeatherDisplay:10.37,2013-09-08 19:56:00,
2013-09-08 12:59:00,73.0,65.4,30.09,NNW,346,0.1,1.2,77,0.00,CLR,BKN,0.00,WeatherDisplay:10.37,2013-09-08 19:59:00,
2013-09-08 13:00:00,73.0,65.4,30.09,North,355,0.0,4.0,77,0.00,CLR,BKN,0.00,WeatherDisplay:10.37,2013-09-08 20:00:00,
2013-09-08 13:03:00,73.2,64.8,30.09,NW,307,1.3,3.5,75,0.00,CLR,BKN,0.00,WeatherDisplay:10.37,2013-09-08 20:03:00,
2013-09-08 13:04:00,73.3,64.5,30.09,NW,307,0.0,1.0,74,0.00,CLR,BKN,0.00,WeatherDisplay:10.37,2013-09-08 20:04:00,
2013-09-08 13:05:00,73.4,65.4,30.09,NW,306,0.0,0.0,76,0.00,CLR,BKN,0.00,WeatherDisplay:10.37,2013-09-08 20:05:00,
2013-09-08 13:06:00,73.5,65.1,30.09,WNW,298,0.3,2.3,75,0.00,CLR,BKN,0.00,WeatherDisplay:10.37,2013-09-08 20:06:00,
2013-09-08 13:09:00,73.9,65.1,30.09,NNW,344,0.0,1.2,74,0.00,CLR,BKN,0.00,WeatherDisplay:10.37,2013-09-08 20:09:00,
2013-09-08 13:10:00,73.9,65.5,30.09,NNW,344,0.2,1.2,75,0.00,CLR,BKN,0.00,WeatherDisplay:10.37,2013-09-08 20:10:00,
2013-09-08 13:11:00,74.0,64.8,30.09,NNW,344,0.1,2.3,73,0.00,CLR,BKN,0.00,WeatherDisplay:10.37,2013-09-08 20:11:00,
2013-09-08 13:14:00,73.9,65.9,30.09,North,10,0.0,1.2,76,0.00,CLR,BKN,0.00,WeatherDisplay:10.37,2013-09-08 20:14:00,
2013-09-08 13:15:00,74.0,66.0,30.09,NNW,342,0.2,2.3,76,0.00,CLR,BKN,0.00,WeatherDisplay:10.37,2013-09-08 20:15:00,
2013-09-08 13:16:00,74.1,64.9,30.09,NNW,348,1.7,3.5,73,0.00,CLR,BKN,0.00,WeatherDisplay:10.37,2013-09-08 20:16:00,
2013-09-08 13:17:00,74.2,64.6,30.09,NE,34,0.7,3.5,72,0.00,CLR,BKN,0.00,WeatherDisplay:10.37,2013-09-08 20:17:00,
2013-09-08 13:19:00,74.2,65.4,30.09,ENE,60,0.1,3.5,74,0.00,CLR,BKN,0.00,WeatherDisplay:10.37,2013-09-08 20:19:00,
2013-09-08 13:20:00,74.2,65.0,30.09,ENE,75,1.2,3.5,73,0.00,CLR,BKN,0.00,WeatherDisplay:10.37,2013-09-08 20:20:00,
2013-09-08 13:21:00,74.2,65.0,30.09,NW,317,1.1,3.5,73,0.00,CLR,BKN,0.00,WeatherDisplay:10.37,2013-09-08 20:21:00,
2013-09-08 13:24:00,74.2,64.6,30.09,East,81,1.8,3.5,72,0.00,CLR,BKN,0.00,WeatherDisplay:10.37,2013-09-08 20:24:00,
2013-09-08 13:25:00,74.2,65.0,30.09,East,88,0.2,2.3,73,0.00,CLR,BKN,0.00,WeatherDisplay:10.37,2013-09-08 20:25:00,
2013-09-08 13:26:00,74.2,65.8,30.09,East,88,0.1,2.3,75,0.00,CLR,BKN,0.00,WeatherDisplay:10.37,2013-09-08 20:26:00,
2013-09-08 13:27:00,74.2,65.8,30.09,East,88,0.2,1.0,75,0.00,CLR,BKN,0.00,WeatherDisplay:10.37,2013-09-08 20:27:00,
2013-09-08 13:30:00,74.4,65.2,30.09,NNW,345,1.0,4.6,73,0.00,CLR,BKN,0.00,WeatherDisplay:10.37,2013-09-08 20:30:00,
2013-09-08 13:31:00,74.4,65.2,30.09,NNE,20,1.1,4.6,73,0.00,CLR,BKN,0.00,WeatherDisplay:10.37,2013-09-08 20:31:00,
2013-09-08 13:32:00,74.4,64.8,30.09,NNE,21,1.1,3.5,72,0.00,CLR,BKN,0.00,WeatherDisplay:10.37,2013-09-08 20:32:00,
2013-09-08 13:33:00,74.4,65.2,30.09,North,360,0.5,2.3,73,0.00,CLR,BKN,0.00,WeatherDisplay:10.37,2013-09-08 20:33:00,
2013-09-08 13:36:00,74.5,65.3,30.09,NNW,345,0.5,3.5,73,0.00,CLR,BKN,0.00,WeatherDisplay:10.37,2013-09-08 20:36:00,
2013-09-08 13:37:00,74.5,64.9,30.09,NE,38,0.9,2.3,72,0.00,CLR,BKN,0.00,WeatherDisplay:10.37,2013-09-08 20:37:00,
2013-09-08 13:38:00,74.5,65.3,30.09,NE,36,0.7,3.5,73,0.00,CLR,BKN,0.00,WeatherDisplay:10.37,2013-09-08 20:38:00,
2013-09-08 13:39:00,74.6,66.1,30.09,NNW,341,1.1,3.5,75,0.00,CLR,BKN,0.00,WeatherDisplay:10.37,2013-09-08 20:39:00,
2013-09-08 13:41:00,74.7,65.5,30.09,NW,321,0.4,2.3,73,0.00,CLR,BKN,0.00,WeatherDisplay:10.37,2013-09-08 20:41:00,
2013-09-08 13:42:00,74.7,66.2,30.09,NNW,342,0.5,2.3,75,0.00,CLR,BKN,0.00,WeatherDisplay:10.37,2013-09-08 20:42:00,
2013-09-08 13:43:00,74.7,65.1,30.09,SE,135,1.7,4.6,72,0.00,CLR,BKN,0.00,WeatherDisplay:10.37,2013-09-08 20:43:00,
2013-09-08 13:45:00,74.6,65.0,30.09,NNW,333,0.5,3.5,72,0.00,CLR,BKN,0.00,WeatherDisplay:10.37,2013-09-08 20:45:00,
2013-09-08 13:46:00,74.6,65.0,30.09,NNE,29,0.6,3.5,72,0.00,CLR,BKN,0.00,WeatherDisplay:10.37,2013-09-08 20:46:00,
2013-09-08 13:47:00,74.6,65.0,30.09,NNW,346,0.8,3.5,72,0.00,CLR,BKN,0.00,WeatherDisplay:10.37,2013-09-08 20:47:00,
2013-09-08 13:48:00,74.6,65.0,30.09,North,351,1.1,3.5,72,0.00,CLR,BKN,0.00,WeatherDisplay:10.37,2013-09-08 20:48:00,
2013-09-08 13:51:00,74.6,65.4,30.09,NE,36,1.5,3.5,73,0.00,CLR,BKN,0.00,WeatherDisplay:10.37,2013-09-08 20:51:00,
2013-09-08 13:52:00,74.5,64.9,30.09,NE,36,0.8,3.5,72,0.00,CLR,BKN,0.00,WeatherDisplay:10.37,2013-09-08 20:52:00,
2013-09-08 13:53:00,74.5,65.3,30.09,NE,39,1.5,3.5,73,0.00,CLR,BKN,0.00,WeatherDisplay:10.37,2013-09-08 20:53:00,
2013-09-08 13:57:00,74.5,66.4,30.09,NE,37,0.2,0.0,76,0.00,CLR,BKN,0.00,WeatherDisplay:10.37,2013-09-08 20:57:00,
2013-09-08 13:58:00,74.6,65.8,30.09,NW,316,0.4,2.3,74,0.00,CLR,BKN,0.00,WeatherDisplay:10.37,2013-09-08 20:58:00,
2013-09-08 14:00:00,74.6,65.0,30.09,NNE,30,0.9,2.3,72,0.00,CLR,BKN,0.00,WeatherDisplay:10.37,2013-09-08 21:00:00,
2013-09-08 14:01:00,74.6,65.4,30.09,NE,46,0.8,3.5,73,0.00,CLR,BKN,0.00,WeatherDisplay:10.37,2013-09-08 21:01:00,
2013-09-08 14:02:00,74.7,65.5,30.09,NE,52,0.1,2.3,73,0.00,CLR,BKN,0.00,WeatherDisplay:10.37,2013-09-08 21:02:00,
2013-09-08 14:03:00,74.7,65.5,30.09,NNE,19,1.2,1.2,73,0.00,CLR,BKN,0.00,WeatherDisplay:10.37,2013-09-08 21:03:00,
2013-09-08 14:05:00,74.6,65.8,30.09,NE,34,0.3,2.3,74,0.00,CLR,BKN,0.00,WeatherDisplay:10.37,2013-09-08 21:05:00,
2013-09-08 14:06:00,74.6,65.8,30.09,North,355,0.9,2.3,74,0.00,CLR,BKN,0.00,WeatherDisplay:10.37,2013-09-08 21:06:00,
2013-09-08 14:08:00,74.6,65.4,30.09,West,278,0.4,2.3,73,0.00,CLR,BKN,0.00,WeatherDisplay:10.37,2013-09-08 21:08:00,
2013-09-08 14:09:00,74.7,65.5,30.09,WNW,300,0.5,3.5,73,0.00,CLR,BKN,0.00,WeatherDisplay:10.37,2013-09-08 21:09:00,
2013-09-08 14:11:00,74.7,65.5,30.08,NNW,335,0.9,3.5,73,0.00,CLR,BKN,0.00,WeatherDisplay:10.37,2013-09-08 21:11:00,
2013-09-08 14:12:00,74.7,65.5,30.09,NNW,335,0.0,0.0,73,0.00,CLR,BKN,0.00,WeatherDisplay:10.37,2013-09-08 21:12:00,
2013-09-08 14:13:00,74.7,65.5,30.09,NNW,348,0.0,0.0,73,0.00,CLR,BKN,0.00,WeatherDisplay:10.37,2013-09-08 21:13:00,
2013-09-08 14:14:00,74.8,65.6,30.09,ENE,78,0.7,1.2,73,0.00,CLR,BKN,0.00,WeatherDisplay:10.37,2013-09-08 21:14:00,
2013-09-08 14:16:00,74.9,65.7,30.08,NNW,333,0.4,2.3,73,0.00,CLR,BKN,0.00,WeatherDisplay:10.37,2013-09-08 21:16:00,
2013-09-08 14:18:00,74.9,65.7,30.08,NNW,331,0.3,3.5,73,0.00,CLR,BKN,0.00,WeatherDisplay:10.37,2013-09-08 21:18:00,
2013-09-08 14:19:00,75.0,65.8,30.08,NNW,332,0.5,1.0,73,0.00,CLR,BKN,0.00,WeatherDisplay:10.37,2013-09-08 21:19:00,
2013-09-08 14:21:00,75.0,65.4,30.08,NNW,330,1.5,4.6,72,0.00,CLR,BKN,0.00,WeatherDisplay:10.37,2013-09-08 21:21:00,
2013-09-08 14:23:00,75.0,65.4,30.08,NNW,330,0.0,0.0,72,0.00,CLR,BKN,0.00,WeatherDisplay:10.37,2013-09-08 21:23:00,
2013-09-08 14:24:00,75.0,65.4,30.08,NNW,333,0.2,0.0,72,0.00,CLR,BKN,0.00,WeatherDisplay:10.37,2013-09-08 21:24:00,
2013-09-08 14:26:00,75.0,65.4,30.08,NE,38,0.4,3.5,72,0.00,CLR,BKN,0.00,WeatherDisplay:10.37,2013-09-08 21:26:00,
2013-09-08 14:29:00,75.1,65.9,30.08,NE,43,0.1,2.3,73,0.00,CLR,BKN,0.00,WeatherDisplay:10.37,2013-09-08 21:29:00,
2013-09-08 14:31:00,75.2,65.6,30.08,ENE,57,0.1,2.3,72,0.00,CLR,BKN,0.00,WeatherDisplay:10.37,2013-09-08 21:31:00,
2013-09-08 14:33:00,75.3,66.0,30.08,ENE,57,0.1,1.2,73,0.00,CLR,BKN,0.00,WeatherDisplay:10.37,2013-09-08 21:33:00,
2013-09-08 14:34:00,75.3,65.6,30.08,NE,53,0.1,1.2,72,0.00,CLR,BKN,0.00,WeatherDisplay:10.37,2013-09-08 21:34:00,
2013-09-08 14:35:00,75.3,65.6,30.08,NE,53,0.2,1.2,72,0.00,CLR,BKN,0.00,WeatherDisplay:10.37,2013-09-08 21:35:00,
2013-09-08 14:37:00,75.5,66.2,30.08,NE,42,0.0,0.0,73,0.00,CLR,BKN,0.00,WeatherDisplay:10.37,2013-09-08 21:37:00,
2013-09-08 14:38:00,75.5,66.2,30.07,NE,46,0.1,0.0,73,0.00,CLR,BKN,0.00,WeatherDisplay:10.37,2013-09-08 21:38:00,
2013-09-08 14:39:00,75.6,66.7,30.07,NE,45,0.0,0.0,74,0.00,CLR,BKN,0.00,WeatherDisplay:10.37,2013-09-08 21:39:00,
2013-09-08 14:40:00,75.6,65.9,30.07,NE,44,0.2,2.0,72,0.00,CLR,BKN,0.00,WeatherDisplay:10.37,2013-09-08 21:40:00,
2013-09-08 14:42:00,75.6,65.9,30.07,NE,47,0.0,2.3,72,0.00,CLR,BKN,0.00,WeatherDisplay:10.37,2013-09-08 21:42:00,
2013-09-08 14:43:00,75.6,66.3,30.07,NE,35,0.2,1.2,73,0.00,CLR,BKN,0.00,WeatherDisplay:10.37,2013-09-08 21:43:00,
2013-09-08 14:44:00,75.6,66.3,30.07,NE,35,0.0,0.0,73,0.00,CLR,BKN,0.00,WeatherDisplay:10.37,2013-09-08 21:44:00,
2013-09-08 14:45:00,75.7,66.4,30.07,NNE,21,0.2,0.0,73,0.00,CLR,BKN,0.00,WeatherDisplay:10.37,2013-09-08 21:45:00,
2013-09-08 14:47:00,75.7,65.6,30.07,NNE,21,0.1,1.2,71,0.00,CLR,BKN,0.00,WeatherDisplay:10.37,2013-09-08 21:47:00,
2013-09-08 14:49:00,75.8,65.7,30.07,NNW,334,1.5,3.5,71,0.00,CLR,BKN,0.00,WeatherDisplay:10.37,2013-09-08 21:49:00,
2013-09-08 14:50:00,75.8,65.7,30.07,North,351,1.4,3.5,71,0.00,CLR,BKN,0.00,WeatherDisplay:10.37,2013-09-08 21:50:00,
2013-09-08 14:53:00,75.8,65.3,30.07,NE,49,0.1,4.6,70,0.00,CLR,BKN,0.00,WeatherDisplay:10.37,2013-09-08 21:53:00,
2013-09-08 14:54:00,75.8,64.9,30.07,NNE,17,1.4,3.5,69,0.00,CLR,BKN,0.00,WeatherDisplay:10.37,2013-09-08 21:54:00,
2013-09-08 14:55:00,75.8,64.5,30.07,NE,55,2.2,3.5,68,0.00,CLR,BKN,0.00,WeatherDisplay:10.37,2013-09-08 21:55:00,
2013-09-08 14:57:00,75.8,64.9,30.07,NE,47,1.7,1.7,69,0.00,CLR,BKN,0.00,WeatherDisplay:10.37,2013-09-08 21:57:00,
2013-09-08 14:59:00,75.9,65.4,30.07,NNE,12,0.1,1.2,70,0.00,CLR,BKN,0.00,WeatherDisplay:10.37,2013-09-08 21:59:00,
2013-09-08 15:00:00,75.8,65.3,30.07,NNE,12,0.0,1.2,70,0.00,CLR,BKN,0.00,WeatherDisplay:10.37,2013-09-08 22:00:00,
2013-09-08 15:01:00,75.9,65.8,30.07,North,349,0.2,2.3,71,0.00,CLR,BKN,0.00,WeatherDisplay:10.37,2013-09-08 22:01:00,
2013-09-08 15:02:00,75.9,65.0,30.07,NNW,346,0.8,2.3,69,0.00,CLR,BKN,0.00,WeatherDisplay:10.37,2013-09-08 22:02:00,
2013-09-08 15:04:00,76.0,65.9,30.07,ENE,61,0.1,1.2,71,0.00,CLR,BKN,0.00,WeatherDisplay:10.37,2013-09-08 22:04:00,
2013-09-08 15:05:00,76.1,66.0,30.07,NNW,329,0.6,3.5,71,0.00,CLR,BKN,0.00,WeatherDisplay:10.37,2013-09-08 22:05:00,
2013-09-08 15:06:00,76.1,65.6,30.07,NW,320,1.3,3.5,70,0.00,CLR,BKN,0.00,WeatherDisplay:10.37,2013-09-08 22:06:00,
2013-09-08 15:08:00,76.1,65.2,30.07,NW,320,0.0,0.0,69,0.00,CLR,BKN,0.00,WeatherDisplay:10.37,2013-09-08 22:08:00,
2013-09-08 15:09:00,76.1,65.6,30.07,NW,320,0.0,0.0,70,0.00,CLR,BKN,0.00,WeatherDisplay:10.37,2013-09-08 22:09:00,
2013-09-08 15:10:00,76.2,65.3,30.07,NW,320,0.1,0.0,69,0.00,CLR,BKN,0.00,WeatherDisplay:10.37,2013-09-08 22:10:00,
2013-09-08 15:11:00,76.2,65.3,30.07,NW,320,0.1,0.0,69,0.00,CLR,BKN,0.00,WeatherDisplay:10.37,2013-09-08 22:11:00,
2013-09-08 15:14:00,76.3,64.5,30.06,North,351,1.4,3.5,67,0.00,CLR,BKN,0.00,WeatherDisplay:10.37,2013-09-08 22:14:00,
2013-09-08 15:15:00,76.4,64.6,30.07,NW,316,0.3,1.2,67,0.00,CLR,BKN,0.00,WeatherDisplay:10.37,2013-09-08 22:15:00,
2013-09-08 15:16:00,76.4,64.6,30.07,NW,316,0.2,1.2,67,0.00,CLR,BKN,0.00,WeatherDisplay:10.37,2013-09-08 22:16:00,
2013-09-08 15:19:00,76.5,64.7,30.07,NW,316,0.0,1.2,67,0.00,CLR,BKN,0.00,WeatherDisplay:10.37,2013-09-08 22:19:00,
2013-09-08 15:20:00,76.6,64.8,30.06,WNW,296,0.1,0.0,67,0.00,CLR,BKN,0.00,WeatherDisplay:10.37,2013-09-08 22:20:00,
2013-09-08 15:21:00,76.6,64.0,30.06,WNW,296,0.1,1.2,65,0.00,CLR,BKN,0.00,WeatherDisplay:10.37,2013-09-08 22:21:00,
2013-09-08 15:22:00,76.7,64.0,30.06,WNW,296,0.0,0.0,65,0.00,CLR,BKN,0.00,WeatherDisplay:10.37,2013-09-08 22:22:00,
2013-09-08 15:25:00,76.8,63.2,30.06,WNW,296,0.0,0.0,63,0.00,CLR,BKN,0.00,WeatherDisplay:10.37,2013-09-08 22:25:00,
2013-09-08 15:26:00,76.9,62.4,30.06,North,5,0.1,2.3,61,0.00,CLR,BKN,0.00,WeatherDisplay:10.37,2013-09-08 22:26:00,
2013-09-08 15:27:00,76.9,62.4,30.06,NNW,332,0.1,2.3,61,0.00,CLR,BKN,0.00,WeatherDisplay:10.37,2013-09-08 22:27:00,
2013-09-08 15:30:00,76.9,62.4,30.06,North,5,0.4,3.5,61,0.00,CLR,BKN,0.00,WeatherDisplay:10.37,2013-09-08 22:30:00,
2013-09-08 15:31:00,76.9,62.9,30.06,NE,56,0.6,2.3,62,0.00,CLR,BKN,0.00,WeatherDisplay:10.37,2013-09-08 22:31:00,
2013-09-08 15:32:00,76.9,62.9,30.06,NE,56,0.0,3.5,62,0.00,CLR,BKN,0.00,WeatherDisplay:10.37,2013-09-08 22:32:00,
2013-09-08 15:33:00,76.9,62.9,30.06,NE,56,0.0,3.5,62,0.00,CLR,BKN,0.00,WeatherDisplay:10.37,2013-09-08 22:33:00,
2013-09-08 15:35:00,77.0,63.0,30.06,North,11,0.1,1.2,62,0.00,CLR,BKN,0.00,WeatherDisplay:10.37,2013-09-08 22:35:00,
2013-09-08 15:36:00,77.0,63.0,30.06,North,11,0.0,1.2,62,0.00,CLR,BKN,0.00,WeatherDisplay:10.37,2013-09-08 22:36:00,
2013-09-08 15:37:00,77.1,62.6,30.06,North,9,0.1,0.0,61,0.00,CLR,BKN,0.00,WeatherDisplay:10.37,2013-09-08 22:37:00,
2013-09-08 15:39:00,77.2,62.7,30.06,NW,326,0.3,2.3,61,0.00,CLR,BKN,0.00,WeatherDisplay:10.37,2013-09-08 22:39:00,
2013-09-08 15:40:00,77.3,63.3,30.06,NW,325,0.1,1.2,62,0.00,CLR,BKN,0.00,WeatherDisplay:10.37,2013-09-08 22:40:00,
2013-09-08 15:42:00,77.3,62.3,30.06,NW,317,0.2,1.2,60,0.00,CLR,BKN,0.00,WeatherDisplay:10.37,2013-09-08 22:42:00,
2013-09-08 15:44:00,77.4,61.9,30.06,NW,317,0.0,1.2,59,0.00,CLR,BKN,0.00,WeatherDisplay:10.37,2013-09-08 22:44:00,
2013-09-08 15:45:00,77.4,62.4,30.06,WSW,251,0.5,2.3,60,0.00,CLR,BKN,0.00,WeatherDisplay:10.37,2013-09-08 22:45:00,
2013-09-08 15:46:00,77.4,62.4,30.06,WSW,240,0.2,2.3,60,0.00,CLR,BKN,0.00,WeatherDisplay:10.37,2013-09-08 22:46:00,
2013-09-08 15:48:00,77.6,62.6,30.06,North,355,0.1,4.0,60,0.00,CLR,BKN,0.00,WeatherDisplay:10.37,2013-09-08 22:48:00,
2013-09-08 15:49:00,77.6,62.6,30.06,NW,307,0.5,3.5,60,0.00,CLR,BKN,0.00,WeatherDisplay:10.37,2013-09-08 22:49:00,
2013-09-08 15:50:00,77.6,62.1,30.06,NNW,338,0.4,2.3,59,0.00,CLR,BKN,0.00,WeatherDisplay:10.37,2013-09-08 22:50:00,
2013-09-08 15:53:00,77.5,61.6,30.06,ENE,73,0.6,2.3,58,0.00,CLR,BKN,0.00,WeatherDisplay:10.37,2013-09-08 22:53:00,
2013-09-08 15:54:00,77.4,61.9,30.06,North,350,0.6,2.3,59,0.00,CLR,BKN,0.00,WeatherDisplay:10.37,2013-09-08 22:54:00,
2013-09-08 15:55:00,77.4,61.9,30.05,NNW,342,0.0,3.5,59,0.00,CLR,BKN,0.00,WeatherDisplay:10.37,2013-09-08 22:55:00,
2013-09-08 15:56:00,77.4,62.9,30.06,NNW,342,0.0,0.0,61,0.00,CLR,BKN,0.00,WeatherDisplay:10.37,2013-09-08 22:56:00,
2013-09-08 15:58:00,77.4,61.9,30.06,WNW,285,1.7,3.0,59,0.00,CLR,BKN,0.00,WeatherDisplay:10.37,2013-09-08 22:58:00,
2013-09-08 15:59:00,77.4,61.5,30.06,ENE,75,0.6,6.9,58,0.00,CLR,BKN,0.00,WeatherDisplay:10.37,2013-09-08 22:59:00,
2013-09-08 16:00:00,77.4,61.9,30.06,ENE,75,0.0,2.3,59,0.00,CLR,BKN,0.00,WeatherDisplay:10.37,2013-09-08 23:00:00,
2013-09-08 16:01:00,77.4,62.4,30.05,SSE,161,0.3,1.2,60,0.00,CLR,BKN,0.00,WeatherDisplay:10.37,2013-09-08 23:01:00,
2013-09-08 16:02:00,77.5,63.0,30.05,SE,140,0.5,1.2,61,0.00,CLR,BKN,0.00,WeatherDisplay:10.37,2013-09-08 23:02:00,
2013-09-08 16:03:00,77.5,62.5,30.05,NW,326,0.8,2.3,60,0.00,CLR,BKN,0.00,WeatherDisplay:10.37,2013-09-08 23:03:00,
2013-09-08 16:04:00,77.5,62.0,30.05,NNW,345,0.1,1.2,59,0.00,CLR,BKN,0.00,WeatherDisplay:10.37,2013-09-08 23:04:00,
2013-09-08 16:05:00,77.5,62.0,30.05,WNW,292,0.2,1.2,59,0.00,CLR,BKN,0.00,WeatherDisplay:10.37,2013-09-08 23:05:00,
2013-09-08 16:06:00,77.5,62.0,30.05,WNW,298,0.6,3.0,59,0.00,CLR,BKN,0.00,WeatherDisplay:10.37,2013-09-08 23:06:00,
2013-09-08 16:07:00,77.5,62.0,30.05,North,351,0.3,2.3,59,0.00,CLR,BKN,0.00,WeatherDisplay:10.37,2013-09-08 23:07:00,
2013-09-08 16:08:00,77.4,62.4,30.05,North,351,0.2,2.0,60,0.00,CLR,BKN,0.00,WeatherDisplay:10.37,2013-09-08 23:08:00,
2013-09-08 16:09:00,77.4,61.9,30.05,NW,311,0.9,3.5,59,0.00,CLR,BKN,0.00,WeatherDisplay:10.37,2013-09-08 23:09:00,
2013-09-08 16:10:00,77.4,61.9,30.05,NW,321,0.4,2.3,59,0.00,CLR,BKN,0.00,WeatherDisplay:10.37,2013-09-08 23:10:00,
2013-09-08 16:11:00,77.4,61.9,30.05,NW,322,0.2,2.3,59,0.00,CLR,BKN,0.00,WeatherDisplay:10.37,2013-09-08 23:11:00,
2013-09-08 16:13:00,77.4,62.4,30.05,WNW,298,0.1,0.0,60,0.00,CLR,BKN,0.00,WeatherDisplay:10.37,2013-09-08 23:13:00,
2013-09-08 16:14:00,77.3,61.9,30.05,WNW,301,0.6,2.3,59,0.00,CLR,BKN,0.00,WeatherDisplay:10.37,2013-09-08 23:14:00,
2013-09-08 16:15:00,77.3,61.9,30.05,North,360,0.3,2.3,59,0.00,CLR,BKN,0.00,WeatherDisplay:10.37,2013-09-08 23:15:00,
2013-09-08 16:16:00,77.2,61.8,30.05,NNW,344,0.3,3.5,59,0.00,CLR,BKN,0.00,WeatherDisplay:10.37,2013-09-08 23:16:00,
2013-09-08 16:18:00,77.1,61.7,30.05,NNW,344,0.6,3.5,59,0.00,CLR,BKN,0.00,WeatherDisplay:10.37,2013-09-08 23:18:00,
2013-09-08 16:20:00,77.0,61.6,30.05,NNW,340,0.2,1.2,59,0.00,CLR,BKN,0.00,WeatherDisplay:10.37,2013-09-08 23:20:00,
2013-09-08 16:21:00,77.0,61.6,30.05,NNW,340,0.0,1.2,59,0.00,CLR,BKN,0.00,WeatherDisplay:10.37,2013-09-08 23:21:00,
2013-09-08 16:22:00,77.0,62.5,30.05,NNW,340,0.0,1.2,61,0.00,CLR,BKN,0.00,WeatherDisplay:10.37,2013-09-08 23:22:00,
2013-09-08 16:24:00,77.0,62.0,30.05,East,96,0.2,1.2,60,0.00,CLR,BKN,0.00,WeatherDisplay:10.37,2013-09-08 23:24:00,
2013-09-08 16:25:00,77.0,61.6,30.05,NNE,20,1.1,4.6,59,0.00,CLR,BKN,0.00,WeatherDisplay:10.37,2013-09-08 23:25:00,
2013-09-08 16:26:00,77.1,61.7,30.05,North,355,1.0,4.6,59,0.00,CLR,BKN,0.00,WeatherDisplay:10.37,2013-09-08 23:26:00,
2013-09-08 16:27:00,77.0,61.6,30.05,NNE,15,0.9,3.5,59,0.00,CLR,BKN,0.00,WeatherDisplay:10.37,2013-09-08 23:27:00,
2013-09-08 16:29:00,77.0,61.1,30.05,NNW,328,0.1,1.2,58,0.00,CLR,BKN,0.00,WeatherDisplay:10.37,2013-09-08 23:29:00,
2013-09-08 16:30:00,77.0,61.6,30.05,North,355,0.6,3.5,59,0.00,CLR,BKN,0.00,WeatherDisplay:10.37,2013-09-08 23:30:00,
2013-09-08 16:31:00,76.9,61.0,30.05,North,350,0.5,2.3,58,0.00,CLR,BKN,0.00,WeatherDisplay:10.37,2013-09-08 23:31:00,
2013-09-08 16:33:00,76.9,61.5,30.05,SW,234,0.6,1.2,59,0.00,CLR,BKN,0.00,WeatherDisplay:10.37,2013-09-08 23:33:00,
2013-09-08 16:35:00,76.9,61.5,30.05,NNW,327,0.0,1.2,59,0.00,CLR,BKN,0.00,WeatherDisplay:10.37,2013-09-08 23:35:00,
2013-09-08 16:36:00,76.9,62.0,30.04,NNE,15,0.4,1.2,60,0.00,CLR,BKN,0.00,WeatherDisplay:10.37,2013-09-08 23:36:00,
2013-09-08 16:38:00,76.9,61.5,30.05,NNE,15,0.1,0.0,59,0.00,CLR,BKN,0.00,WeatherDisplay:10.37,2013-09-08 23:38:00,
2013-09-08 16:40:00,76.9,62.0,30.04,NNE,15,0.0,1.2,60,0.00,CLR,BKN,0.00,WeatherDisplay:10.37,2013-09-08 23:40:00,
2013-09-08 16:41:00,77.0,62.0,30.04,NNE,15,0.0,1.2,60,0.00,CLR,BKN,0.00,WeatherDisplay:10.37,2013-09-08 23:41:00,
2013-09-08 16:43:00,77.1,61.2,30.04,North,355,0.0,1.2,58,0.00,CLR,BKN,0.00,WeatherDisplay:10.37,2013-09-08 23:43:00,
2013-09-08 16:46:00,77.1,61.7,30.04,North,355,0.6,3.5,59,0.00,CLR,BKN,0.00,WeatherDisplay:10.37,2013-09-08 23:46:00,
2013-09-08 16:47:00,77.1,61.2,30.04,North,355,0.1,2.3,58,0.00,CLR,BKN,0.00,WeatherDisplay:10.37,2013-09-08 23:47:00,
2013-09-08 16:48:00,77.1,61.2,30.04,NNW,338,0.7,3.5,58,0.00,CLR,BKN,0.00,WeatherDisplay:10.37,2013-09-08 23:48:00,
2013-09-08 16:51:00,77.1,61.7,30.04,NNE,24,2.2,6.9,59,0.00,CLR,BKN,0.00,WeatherDisplay:10.37,2013-09-08 23:51:00,
2013-09-08 16:52:00,77.0,61.1,30.04,NW,321,0.2,6.9,58,0.00,CLR,BKN,0.00,WeatherDisplay:10.37,2013-09-08 23:52:00,
2013-09-08 16:54:00,76.9,61.5,30.04,NNE,15,0.7,0.0,59,0.00,CLR,BKN,0.00,WeatherDisplay:10.37,2013-09-08 23:54:00,
2013-09-08 16:55:00,76.9,61.5,30.04,ENE,74,0.4,1.2,59,0.00,CLR,BKN,0.00,WeatherDisplay:10.37,2013-09-08 23:55:00,
2013-09-08 16:56:00,76.9,61.5,30.04,ENE,74,0.4,1.2,59,0.00,CLR,BKN,0.00,WeatherDisplay:10.37,2013-09-08 23:56:00,
2013-09-08 16:57:00,76.9,61.5,30.04,ENE,74,0.2,3.5,59,0.00,CLR,BKN,0.00,WeatherDisplay:10.37,2013-09-08 23:57:00,
2013-09-08 16:59:00,77.0,62.0,30.04,ENE,74,0.0,0.0,60,0.00,CLR,BKN,0.00,WeatherDisplay:10.37,2013-09-08 23:59:00,
2013-09-08 17:00:00,77.0,62.0,30.04,NNW,342,0.8,3.5,60,0.00,CLR,BKN,0.00,WeatherDisplay:10.37,2013-09-09 00:00:00,
2013-09-08 17:02:00,77.0,62.0,30.04,NNW,342,0.0,1.2,60,0.00,CLR,BKN,0.00,WeatherDisplay:10.37,2013-09-09 00:02:00,
2013-09-08 17:03:00,77.0,62.0,30.04,NNW,342,0.0,0.0,60,0.00,CLR,BKN,0.00,WeatherDisplay:10.37,2013-09-09 00:03:00,
2013-09-08 17:04:00,76.9,62.0,30.04,NNW,343,0.0,0.0,60,0.00,CLR,BKN,0.00,WeatherDisplay:10.37,2013-09-09 00:04:00,
2013-09-08 17:06:00,76.9,62.0,30.04,NNW,343,0.0,1.2,60,0.00,CLR,BKN,0.00,WeatherDisplay:10.37,2013-09-09 00:06:00,
2013-09-08 17:07:00,76.9,62.0,30.04,NNW,342,0.0,1.2,60,0.00,CLR,BKN,0.00,WeatherDisplay:10.37,2013-09-09 00:07:00,
2013-09-08 17:08:00,76.8,61.9,30.04,NNW,344,0.0,0.0,60,0.00,CLR,BKN,0.00,WeatherDisplay:10.37,2013-09-09 00:08:00,
2013-09-08 17:10:00,76.8,61.9,30.04,NNW,344,0.1,0.0,60,0.00,CLR,BKN,0.00,WeatherDisplay:10.37,2013-09-09 00:10:00,
2013-09-08 17:12:00,76.8,61.4,30.04,NNW,333,0.1,1.2,59,0.00,CLR,BKN,0.00,WeatherDisplay:10.37,2013-09-09 00:12:00,
2013-09-08 17:13:00,76.8,61.4,30.04,ENE,65,0.6,3.5,59,0.00,CLR,BKN,0.00,WeatherDisplay:10.37,2013-09-09 00:13:00,
2013-09-08 17:14:00,76.7,61.3,30.04,ENE,63,0.6,3.5,59,0.00,CLR,BKN,0.00,WeatherDisplay:10.37,2013-09-09 00:14:00,
2013-09-08 17:15:00,76.7,61.8,30.04,NNW,332,0.1,1.2,60,0.00,CLR,BKN,0.00,WeatherDisplay:10.37,2013-09-09 00:15:00,
2013-09-08 17:17:00,76.7,61.8,30.04,NNW,332,0.0,0.0,60,0.00,CLR,BKN,0.00,WeatherDisplay:10.37,2013-09-09 00:17:00,
2013-09-08 17:18:00,76.7,61.8,30.04,NNW,332,0.0,0.0,60,0.00,CLR,BKN,0.00,WeatherDisplay:10.37,2013-09-09 00:18:00,
2013-09-08 17:19:00,76.6,61.7,30.04,NNW,332,0.0,0.0,60,0.00,CLR,BKN,0.00,WeatherDisplay:10.37,2013-09-09 00:19:00,
2013-09-08 17:21:00,76.6,62.1,30.04,NNW,332,0.0,0.0,61,0.00,CLR,BKN,0.00,WeatherDisplay:10.37,2013-09-09 00:21:00,
2013-09-08 17:22:00,76.6,62.1,30.04,NNW,332,0.0,0.0,61,0.00,CLR,BKN,0.00,WeatherDisplay:10.37,2013-09-09 00:22:00,
2013-09-08 17:23:00,76.6,61.7,30.04,NNW,332,0.1,1.2,60,0.00,CLR,BKN,0.00,WeatherDisplay:10.37,2013-09-09 00:23:00,
2013-09-08 17:24:00,76.6,62.1,30.04,NNW,332,0.0,1.0,61,0.00,CLR,BKN,0.00,WeatherDisplay:10.37,2013-09-09 00:24:00,
2013-09-08 17:25:00,76.6,62.1,30.04,NNW,332,0.0,3.0,61,0.00,CLR,BKN,0.00,WeatherDisplay:10.37,2013-09-09 00:25:00,
2013-09-08 17:26:00,76.6,62.1,30.04,NNW,336,0.0,0.0,61,0.00,CLR,BKN,0.00,WeatherDisplay:10.37,2013-09-09 00:26:00,
2013-09-08 17:28:00,76.6,62.1,30.04,NNW,336,0.1,1.2,61,0.00,CLR,BKN,0.00,WeatherDisplay:10.37,2013-09-09 00:28:00,
2013-09-08 17:29:00,76.6,62.1,30.04,NNW,333,0.9,4.6,61,0.00,CLR,BKN,0.00,WeatherDisplay:10.37,2013-09-09 00:29:00,
2013-09-08 17:30:00,76.5,62.0,30.04,NNW,333,0.0,1.2,61,0.00,CLR,BKN,0.00,WeatherDisplay:10.37,2013-09-09 00:30:00,
2013-09-08 17:32:00,76.5,62.0,30.04,NNW,333,0.0,1.2,61,0.00,CLR,BKN,0.00,WeatherDisplay:10.37,2013-09-09 00:32:00,
2013-09-08 17:33:00,76.4,62.4,30.04,NNW,333,0.0,1.2,62,0.00,CLR,BKN,0.00,WeatherDisplay:10.37,2013-09-09 00:33:00,
2013-09-08 17:34:00,76.4,62.4,30.04,NNW,334,0.0,0.0,62,0.00,CLR,BKN,0.00,WeatherDisplay:10.37,2013-09-09 00:34:00,
2013-09-08 17:35:00,76.4,62.4,30.04,NNW,333,0.0,0.0,62,0.00,CLR,BKN,0.00,WeatherDisplay:10.37,2013-09-09 00:35:00,
2013-09-08 17:38:00,76.5,63.0,30.04,NNW,334,0.0,0.0,63,0.00,CLR,BKN,0.00,WeatherDisplay:10.37,2013-09-09 00:38:00,
2013-09-08 17:39:00,76.5,63.0,30.04,NNW,334,0.0,1.2,63,0.00,CLR,BKN,0.00,WeatherDisplay:10.37,2013-09-09 00:39:00,
2013-09-08 17:40:00,76.5,63.0,30.04,NNW,334,0.0,0.0,63,0.00,CLR,BKN,0.00,WeatherDisplay:10.37,2013-09-09 00:40:00,
2013-09-08 17:43:00,76.5,62.5,30.04,NNW,333,0.0,0.0,62,0.00,CLR,BKN,0.00,WeatherDisplay:10.37,2013-09-09 00:43:00,
2013-09-08 17:44:00,76.5,62.5,30.04,NNW,334,0.0,0.0,62,0.00,CLR,BKN,0.00,WeatherDisplay:10.37,2013-09-09 00:44:00,
2013-09-08 17:46:00,76.4,62.4,30.04,NNW,333,0.0,0.0,62,0.00,CLR,BKN,0.00,WeatherDisplay:10.37,2013-09-09 00:46:00,
2013-09-08 17:48:00,76.4,62.4,30.04,NNW,333,0.0,1.2,62,0.00,CLR,BKN,0.00,WeatherDisplay:10.37,2013-09-09 00:48:00,
2013-09-08 17:49:00,76.4,62.4,30.04,NNW,333,0.0,1.2,62,0.00,CLR,BKN,0.00,WeatherDisplay:10.37,2013-09-09 00:49:00,
2013-09-08 17:50:00,76.4,62.4,30.04,NNW,333,0.1,1.2,62,0.00,CLR,BKN,0.00,WeatherDisplay:10.37,2013-09-09 00:50:00,
2013-09-08 17:52:00,76.3,62.8,30.04,NNW,333,0.2,1.2,63,0.00,CLR,BKN,0.00,WeatherDisplay:10.37,2013-09-09 00:52:00,
2013-09-08 17:53:00,76.2,62.7,30.04,NNW,333,0.0,0.0,63,0.00,CLR,BKN,0.00,WeatherDisplay:10.37,2013-09-09 00:53:00,
2013-09-08 17:54:00,76.2,62.7,30.04,NNW,333,0.0,0.0,63,0.00,CLR,BKN,0.00,WeatherDisplay:10.37,2013-09-09 00:54:00,
2013-09-08 17:56:00,76.1,62.6,30.04,NNW,333,0.0,0.0,63,0.00,CLR,BKN,0.00,WeatherDisplay:10.37,2013-09-09 00:56:00,
2013-09-08 17:57:00,76.1,62.6,30.04,NNW,333,0.0,0.0,63,0.00,CLR,BKN,0.00,WeatherDisplay:10.37,2013-09-09 00:57:00,
2013-09-08 17:58:00,76.1,62.6,30.04,NNW,333,0.0,0.0,63,0.00,CLR,BKN,0.00,WeatherDisplay:10.37,2013-09-09 00:58:00,
2013-09-08 17:59:00,76.1,62.6,30.04,NNW,333,0.0,0.0,63,0.00,CLR,BKN,0.00,WeatherDisplay:10.37,2013-09-09 00:59:00,
2013-09-08 18:00:00,76.1,62.6,30.04,NNW,333,0.0,0.0,63,0.00,CLR,BKN,0.00,WeatherDisplay:10.37,2013-09-09 01:00:00,
2013-09-08 18:01:00,76.1,62.6,30.04,NNW,333,0.0,0.0,63,0.00,CLR,BKN,0.00,WeatherDisplay:10.37,2013-09-09 01:01:00,
2013-09-08 18:02:00,76.1,62.6,30.04,NNW,333,0.0,0.0,63,0.00,CLR,BKN,0.00,WeatherDisplay:10.37,2013-09-09 01:02:00,
2013-09-08 18:03:00,76.1,62.6,30.04,NNW,333,0.0,0.0,63,0.00,CLR,BKN,0.00,WeatherDisplay:10.37,2013-09-09 01:03:00,
2013-09-08 18:04:00,76.1,62.6,30.04,NNW,333,0.0,0.0,63,0.00,CLR,BKN,0.00,WeatherDisplay:10.37,2013-09-09 01:04:00,
2013-09-08 18:05:00,76.1,62.6,30.04,NNW,333,0.0,0.0,63,0.00,CLR,BKN,0.00,WeatherDisplay:10.37,2013-09-09 01:05:00,
2013-09-08 18:06:00,76.1,62.6,30.04,NNW,333,0.0,0.0,63,0.00,CLR,BKN,0.00,WeatherDisplay:10.37,2013-09-09 01:06:00,
2013-09-08 18:31:00,76.1,62.6,30.04,NNW,333,0.0,0.0,63,0.00,CLR,BKN,0.00,WeatherDisplay:10.37,2013-09-09 01:31:00,
2013-09-08 18:54:00,76.1,62.6,30.04,NNW,333,0.0,0.0,63,0.00,CLR,BKN,0.00,WeatherDisplay:10.37,2013-09-09 01:54:00,
2013-09-08 18:57:00,76.1,62.6,30.04,NNW,333,0.0,0.0,63,0.00,CLR,BKN,0.00,WeatherDisplay:10.37,2013-09-09 01:57:00,
2013-09-08 18:59:00,76.1,62.6,30.04,NNW,333,0.0,0.0,63,0.00,CLR,BKN,0.00,WeatherDisplay:10.37,2013-09-09 01:59:00,
2013-09-08 19:02:00,76.1,62.6,30.04,NNW,333,0.0,0.0,63,0.00,CLR,BKN,0.00,WeatherDisplay:10.37,2013-09-09 02:02:00,
2013-09-08 20:37:00,76.1,62.6,30.04,NNW,333,0.0,0.0,63,0.00,CLR,BKN,0.00,WeatherDisplay:10.37,2013-09-09 03:37:00,
2013-09-08 23:10:00,76.1,62.6,30.04,NNW,333,0.0,0.0,63,0.00,CLR,BKN,0.00,WeatherDisplay:10.37,2013-09-09 06:10:00,